Time,TemperatureF,DewpointF,PressureIn,WindDirection,WindDirectionDegrees,WindSpeedMPH,WindSpeedGustMPH,Humidity,HourlyPrecipIn,Conditions,Clouds,dailyrainin,SoftwareType,DateUTC
2013-04-03 00:02:00,30.6,12.3,30.32,NNE,29,0.0,0.0,46,0.00,,CLR,0.00,VWS V14.01,2013-04-03 05:02:00,
2013-04-03 00:03:00,30.4,12.1,30.32,NNE,29,3.1,3.1,46,0.00,,CLR,0.00,VWS V14.01,2013-04-03 05:03:00,
2013-04-03 00:04:00,30.4,12.1,30.32,NNE,29,3.6,3.6,46,0.00,,CLR,0.00,VWS V14.01,2013-04-03 05:04:00,
2013-04-03 00:05:00,30.0,11.8,30.32,NNE,32,4.0,4.0,46,0.00,,CLR,0.00,VWS V14.01,2013-04-03 05:05:00,
2013-04-03 00:08:00,29.8,11.6,30.32,NNE,32,4.0,4.0,46,0.00,,CLR,0.00,VWS V14.01,2013-04-03 05:08:00,
2013-04-03 00:09:00,29.7,11.4,30.32,NNE,32,3.6,4.0,46,0.00,,CLR,0.00,VWS V14.01,2013-04-03 05:09:00,
2013-04-03 00:10:00,29.7,11.4,30.32,NNE,31,2.7,3.6,46,0.00,,CLR,0.00,VWS V14.01,2013-04-03 05:10:00,
2013-04-03 00:14:00,29.5,13.1,30.32,NNE,31,0.0,0.0,50,0.00,,CLR,0.00,VWS V14.01,2013-04-03 05:14:00,
2013-04-03 00:15:00,29.5,11.3,30.32,NNE,31,2.7,3.1,46,0.00,,CLR,0.00,VWS V14.01,2013-04-03 05:15:00,
2013-04-03 00:19:00,29.1,10.9,30.32,NNE,31,2.7,3.1,46,0.00,,CLR,0.00,VWS V14.01,2013-04-03 05:19:00,
2013-04-03 00:20:00,28.9,10.8,30.32,NNE,31,2.7,3.6,46,0.00,,CLR,0.00,VWS V14.01,2013-04-03 05:20:00,
2013-04-03 00:21:00,28.9,10.8,30.32,NNE,31,3.1,3.1,46,0.00,,CLR,0.00,VWS V14.01,2013-04-03 05:21:00,
2013-04-03 00:24:00,28.8,12.5,30.32,NNE,31,2.7,3.6,50,0.00,,CLR,0.00,VWS V14.01,2013-04-03 05:24:00,
2013-04-03 00:25:00,28.6,12.3,30.32,NNE,31,3.1,3.1,50,0.00,,CLR,0.00,VWS V14.01,2013-04-03 05:25:00,
2013-04-03 00:27:00,28.6,12.3,30.32,NNE,31,0.0,2.2,50,0.00,,CLR,0.00,VWS V14.01,2013-04-03 05:27:00,
2013-04-03 00:30:00,28.4,13.0,30.32,NNE,30,3.1,4.0,52,0.00,,CLR,0.00,VWS V14.01,2013-04-03 05:30:00,
2013-04-03 00:31:00,28.4,13.0,30.32,NNE,30,2.7,2.7,52,0.00,,CLR,0.00,VWS V14.01,2013-04-03 05:31:00,
2013-04-03 00:33:00,28.4,13.0,30.32,NNE,29,3.1,3.1,52,0.00,,CLR,0.00,VWS V14.01,2013-04-03 05:33:00,
2013-04-03 00:35:00,28.4,13.0,30.32,NNE,28,3.6,3.6,52,0.00,,CLR,0.00,VWS V14.01,2013-04-03 05:35:00,
2013-04-03 00:37:00,28.6,12.3,30.32,NNE,23,3.6,3.6,50,0.00,,CLR,0.00,VWS V14.01,2013-04-03 05:37:00,
2013-04-03 00:38:00,28.6,14.9,30.32,NNE,22,4.0,4.0,56,0.00,,CLR,0.00,VWS V14.01,2013-04-03 05:38:00,
2013-04-03 00:40:00,28.8,15.1,30.32,NNE,21,4.9,4.9,56,0.00,,CLR,0.00,VWS V14.01,2013-04-03 05:40:00,
2013-04-03 00:42:00,28.9,15.2,30.32,NNE,22,4.0,4.0,56,0.00,,CLR,0.00,VWS V14.01,2013-04-03 05:42:00,
2013-04-03 00:43:00,28.9,15.2,30.32,NE,36,3.6,3.6,56,0.00,,CLR,0.00,VWS V14.01,2013-04-03 05:43:00,
2013-04-03 00:47:00,29.3,15.6,30.32,NNE,15,4.9,6.3,56,0.00,,CLR,0.00,VWS V14.01,2013-04-03 05:47:00,
2013-04-03 00:48:00,29.3,15.6,30.32,NNE,15,3.1,4.9,56,0.00,,CLR,0.00,VWS V14.01,2013-04-03 05:48:00,
2013-04-03 00:49:00,29.5,15.7,30.32,NNE,14,4.0,4.0,56,0.00,,CLR,0.00,VWS V14.01,2013-04-03 05:49:00,
2013-04-03 00:52:00,29.5,15.7,30.32,NNE,28,4.0,4.0,56,0.00,,CLR,0.00,VWS V14.01,2013-04-03 05:52:00,
2013-04-03 00:53:00,29.5,15.7,30.32,NE,35,3.1,4.0,56,0.00,,CLR,0.00,VWS V14.01,2013-04-03 05:53:00,
2013-04-03 00:54:00,29.5,15.7,30.35,NNE,31,3.1,4.9,56,0.00,,CLR,0.00,VWS V14.01,2013-04-03 05:54:00,
2013-04-03 00:58:00,28.9,15.2,30.35,NNE,31,3.1,4.0,56,0.00,,CLR,0.00,VWS V14.01,2013-04-03 05:58:00,
2013-04-03 00:59:00,28.9,15.2,30.35,NNE,31,3.1,4.0,56,0.00,,CLR,0.00,VWS V14.01,2013-04-03 05:59:00,
2013-04-03 01:03:00,28.8,15.1,30.35,NNE,29,2.7,3.6,56,0.00,,CLR,0.00,VWS V14.01,2013-04-03 06:03:00,
2013-04-03 01:04:00,28.6,14.9,30.35,NNE,29,4.9,4.9,56,0.00,,CLR,0.00,VWS V14.01,2013-04-03 06:04:00,
2013-04-03 01:05:00,28.6,14.9,30.35,NE,41,3.6,4.9,56,0.00,,CLR,0.00,VWS V14.01,2013-04-03 06:05:00,
2013-04-03 01:06:00,28.6,14.9,30.35,NNE,33,3.1,3.6,56,0.00,,CLR,0.00,VWS V14.01,2013-04-03 06:06:00,
2013-04-03 01:08:00,28.4,14.7,30.35,NNE,33,3.1,3.6,56,0.00,,CLR,0.00,VWS V14.01,2013-04-03 06:08:00,
2013-04-03 01:10:00,28.4,14.7,30.35,NNE,33,2.7,3.1,56,0.00,,CLR,0.00,VWS V14.01,2013-04-03 06:10:00,
2013-04-03 01:12:00,28.2,14.6,30.35,NNE,33,0.0,0.0,56,0.00,,CLR,0.00,VWS V14.01,2013-04-03 06:12:00,
2013-04-03 01:13:00,28.0,14.4,30.35,NNE,33,0.0,0.0,56,0.00,,CLR,0.00,VWS V14.01,2013-04-03 06:13:00,
2013-04-03 01:15:00,27.9,14.2,30.35,NNE,32,0.0,0.0,56,0.00,,CLR,0.00,VWS V14.01,2013-04-03 06:15:00,
2013-04-03 01:16:00,27.9,14.2,30.35,NNE,32,2.7,2.7,56,0.00,,CLR,0.00,VWS V14.01,2013-04-03 06:16:00,
2013-04-03 01:17:00,27.9,14.2,30.35,NNE,32,3.1,3.6,56,0.00,,CLR,0.00,VWS V14.01,2013-04-03 06:17:00,
2013-04-03 01:18:00,27.9,14.2,30.35,NNE,32,2.2,2.2,56,0.00,,CLR,0.00,VWS V14.01,2013-04-03 06:18:00,
2013-04-03 01:22:00,27.7,14.0,30.35,NNE,32,0.0,0.0,56,0.00,,CLR,0.00,VWS V14.01,2013-04-03 06:22:00,
2013-04-03 01:23:00,27.5,13.9,30.35,NNE,32,0.0,0.0,56,0.00,,CLR,0.00,VWS V14.01,2013-04-03 06:23:00,
2013-04-03 01:27:00,27.3,13.7,30.35,NNE,32,0.0,0.0,56,0.00,,CLR,0.00,VWS V14.01,2013-04-03 06:27:00,
2013-04-03 01:28:00,27.1,13.5,30.35,NNE,32,0.0,0.0,56,0.00,,CLR,0.00,VWS V14.01,2013-04-03 06:28:00,
2013-04-03 01:29:00,27.1,13.5,30.35,NNE,32,0.0,0.0,56,0.00,,CLR,0.00,VWS V14.01,2013-04-03 06:29:00,
2013-04-03 01:33:00,27.0,13.4,30.35,NNE,32,0.0,0.0,56,0.00,,CLR,0.00,VWS V14.01,2013-04-03 06:33:00,
2013-04-03 01:34:00,27.0,13.4,30.35,NNE,32,0.0,0.0,56,0.00,,CLR,0.00,VWS V14.01,2013-04-03 06:34:00,
2013-04-03 01:35:00,27.0,13.4,30.35,NNE,32,0.0,0.0,56,0.00,,CLR,0.00,VWS V14.01,2013-04-03 06:35:00,
2013-04-03 01:38:00,26.8,13.2,30.35,NNE,32,0.0,0.0,56,0.00,,CLR,0.00,VWS V14.01,2013-04-03 06:38:00,
2013-04-03 01:39:00,26.8,13.2,30.35,NNE,32,0.0,0.0,56,0.00,,CLR,0.00,VWS V14.01,2013-04-03 06:39:00,
2013-04-03 01:40:00,26.8,13.2,30.35,NNE,32,0.0,0.0,56,0.00,,CLR,0.00,VWS V14.01,2013-04-03 06:40:00,
2013-04-03 01:44:00,26.6,13.8,30.35,NNE,32,0.0,0.0,58,0.00,,CLR,0.00,VWS V14.01,2013-04-03 06:44:00,
2013-04-03 01:45:00,26.4,13.7,30.35,NNE,32,0.0,0.0,58,0.00,,CLR,0.00,VWS V14.01,2013-04-03 06:45:00,
2013-04-03 01:49:00,26.4,13.7,30.35,NNE,32,0.0,0.0,58,0.00,,CLR,0.00,VWS V14.01,2013-04-03 06:49:00,
2013-04-03 01:50:00,26.4,13.7,30.35,NNE,32,0.0,0.0,58,0.00,,CLR,0.00,VWS V14.01,2013-04-03 06:50:00,
2013-04-03 01:51:00,26.2,13.5,30.35,NNE,32,0.0,0.0,58,0.00,,CLR,0.00,VWS V14.01,2013-04-03 06:51:00,
2013-04-03 01:55:00,26.1,13.3,30.35,NNE,32,0.0,0.0,58,0.00,,CLR,0.00,VWS V14.01,2013-04-03 06:55:00,
2013-04-03 01:57:00,26.1,13.3,30.35,NNE,32,0.0,0.0,58,0.00,,CLR,0.00,VWS V14.01,2013-04-03 06:57:00,
2013-04-03 01:58:00,25.9,13.1,30.35,NNE,32,0.0,0.0,58,0.00,,CLR,0.00,VWS V14.01,2013-04-03 06:58:00,
2013-04-03 02:00:00,25.7,14.5,30.35,NNE,32,0.0,0.0,62,0.00,,CLR,0.00,VWS V14.01,2013-04-03 07:00:00,
2013-04-03 02:02:00,25.7,14.5,30.35,NNE,32,0.0,0.0,62,0.00,,CLR,0.00,VWS V14.01,2013-04-03 07:02:00,
2013-04-03 02:03:00,25.7,14.5,30.35,NNE,32,0.0,0.0,62,0.00,,CLR,0.00,VWS V14.01,2013-04-03 07:03:00,
2013-04-03 02:05:00,25.7,14.5,30.35,NNE,32,0.0,0.0,62,0.00,,CLR,0.00,VWS V14.01,2013-04-03 07:05:00,
2013-04-03 02:06:00,25.9,14.7,30.35,NNE,32,0.0,0.0,62,0.00,,CLR,0.00,VWS V14.01,2013-04-03 07:06:00,
2013-04-03 02:07:00,25.9,14.7,30.35,NNE,32,0.0,0.0,62,0.00,,CLR,0.00,VWS V14.01,2013-04-03 07:07:00,
2013-04-03 02:08:00,25.9,14.7,30.35,NNE,32,0.0,0.0,62,0.00,,CLR,0.00,VWS V14.01,2013-04-03 07:08:00,
2013-04-03 02:11:00,25.9,14.7,30.35,NNE,32,0.0,0.0,62,0.00,,CLR,0.00,VWS V14.01,2013-04-03 07:11:00,
2013-04-03 02:12:00,25.7,14.5,30.35,NNE,32,0.0,0.0,62,0.00,,CLR,0.00,VWS V14.01,2013-04-03 07:12:00,
2013-04-03 02:13:00,25.7,14.5,30.35,NNE,32,0.0,0.0,62,0.00,,CLR,0.00,VWS V14.01,2013-04-03 07:13:00,
2013-04-03 02:14:00,25.7,14.5,30.35,NNE,32,0.0,0.0,62,0.00,,CLR,0.00,VWS V14.01,2013-04-03 07:14:00,
2013-04-03 02:17:00,25.7,14.5,30.35,NNE,32,0.0,0.0,62,0.00,,CLR,0.00,VWS V14.01,2013-04-03 07:17:00,
2013-04-03 02:18:00,25.7,14.5,30.35,NNE,32,0.0,0.0,62,0.00,,CLR,0.00,VWS V14.01,2013-04-03 07:18:00,
2013-04-03 02:19:00,25.7,14.5,30.35,NNE,32,0.0,0.0,62,0.00,,CLR,0.00,VWS V14.01,2013-04-03 07:19:00,
2013-04-03 02:23:00,25.7,15.2,30.35,NNE,32,0.0,0.0,64,0.00,,CLR,0.00,VWS V14.01,2013-04-03 07:23:00,
2013-04-03 02:24:00,25.7,15.2,30.35,NNE,32,0.0,0.0,64,0.00,,CLR,0.00,VWS V14.01,2013-04-03 07:24:00,
2013-04-03 02:25:00,25.7,15.2,30.35,NNE,32,0.0,0.0,64,0.00,,CLR,0.00,VWS V14.01,2013-04-03 07:25:00,
2013-04-03 02:28:00,25.7,15.2,30.35,NNE,32,0.0,0.0,64,0.00,,CLR,0.00,VWS V14.01,2013-04-03 07:28:00,
2013-04-03 02:29:00,25.7,15.2,30.35,NNE,32,0.0,0.0,64,0.00,,CLR,0.00,VWS V14.01,2013-04-03 07:29:00,
2013-04-03 02:30:00,25.7,15.2,30.35,NNE,32,0.0,0.0,64,0.00,,CLR,0.00,VWS V14.01,2013-04-03 07:30:00,
2013-04-03 02:34:00,25.9,15.4,30.35,NNE,32,0.0,0.0,64,0.00,,CLR,0.00,VWS V14.01,2013-04-03 07:34:00,
2013-04-03 02:35:00,25.9,15.4,30.35,NNE,32,0.0,0.0,64,0.00,,CLR,0.00,VWS V14.01,2013-04-03 07:35:00,
2013-04-03 02:40:00,25.7,15.2,30.35,NNE,32,0.0,0.0,64,0.00,,CLR,0.00,VWS V14.01,2013-04-03 07:40:00,
2013-04-03 02:41:00,25.7,15.2,30.35,NNE,32,0.0,0.0,64,0.00,,CLR,0.00,VWS V14.01,2013-04-03 07:41:00,
2013-04-03 02:45:00,25.5,15.1,30.35,NNE,32,0.0,0.0,64,0.00,,CLR,0.00,VWS V14.01,2013-04-03 07:45:00,
2013-04-03 02:46:00,25.5,15.1,30.35,NNE,32,0.0,0.0,64,0.00,,CLR,0.00,VWS V14.01,2013-04-03 07:46:00,
2013-04-03 02:50:00,25.3,14.9,30.35,NNE,32,0.0,0.0,64,0.00,,CLR,0.00,VWS V14.01,2013-04-03 07:50:00,
2013-04-03 02:52:00,25.3,14.9,30.35,NNE,32,0.0,0.0,64,0.00,,CLR,0.00,VWS V14.01,2013-04-03 07:52:00,
2013-04-03 02:53:00,25.3,14.9,30.35,NNE,32,0.0,0.0,64,0.00,,CLR,0.00,VWS V14.01,2013-04-03 07:53:00,
2013-04-03 02:55:00,25.2,14.7,30.35,NNE,32,0.0,0.0,64,0.00,,CLR,0.00,VWS V14.01,2013-04-03 07:55:00,
2013-04-03 02:56:00,25.0,14.5,30.35,NNE,32,0.0,0.0,64,0.00,,CLR,0.00,VWS V14.01,2013-04-03 07:56:00,
2013-04-03 02:57:00,25.0,14.5,30.35,NNE,32,3.1,3.1,64,0.00,,CLR,0.00,VWS V14.01,2013-04-03 07:57:00,
2013-04-03 02:58:00,25.0,14.5,30.35,NNE,32,2.7,3.6,64,0.00,,CLR,0.00,VWS V14.01,2013-04-03 07:58:00,
2013-04-03 03:00:00,24.8,14.4,30.35,NNE,32,2.7,2.7,64,0.00,,CLR,0.00,VWS V14.01,2013-04-03 08:00:00,
2013-04-03 03:01:00,24.8,14.4,30.35,NNE,32,0.0,2.7,64,0.00,,CLR,0.00,VWS V14.01,2013-04-03 08:01:00,
2013-04-03 03:02:00,24.8,14.4,30.35,NNE,32,0.0,0.0,64,0.00,,CLR,0.00,VWS V14.01,2013-04-03 08:02:00,
2013-04-03 03:03:00,24.8,14.4,30.35,NNE,32,0.0,0.0,64,0.00,,CLR,0.00,VWS V14.01,2013-04-03 08:03:00,
2013-04-03 03:05:00,24.6,14.2,30.35,NNE,32,0.0,0.0,64,0.00,,CLR,0.00,VWS V14.01,2013-04-03 08:05:00,
2013-04-03 03:07:00,24.6,14.2,30.35,NNE,32,0.0,0.0,64,0.00,,CLR,0.00,VWS V14.01,2013-04-03 08:07:00,
2013-04-03 03:08:00,24.6,14.2,30.35,NNE,32,0.0,0.0,64,0.00,,CLR,0.00,VWS V14.01,2013-04-03 08:08:00,
2013-04-03 03:11:00,24.6,14.2,30.35,NNE,32,0.0,0.0,64,0.00,,CLR,0.00,VWS V14.01,2013-04-03 08:11:00,
2013-04-03 03:12:00,24.6,14.2,30.35,NNE,32,0.0,0.0,64,0.00,,CLR,0.00,VWS V14.01,2013-04-03 08:12:00,
2013-04-03 03:13:00,24.4,14.0,30.35,NNE,32,0.0,0.0,64,0.00,,CLR,0.00,VWS V14.01,2013-04-03 08:13:00,
2013-04-03 03:14:00,24.4,14.0,30.35,NNE,32,0.0,0.0,64,0.00,,CLR,0.00,VWS V14.01,2013-04-03 08:14:00,
2013-04-03 03:16:00,24.4,14.0,30.35,NNE,32,0.0,0.0,64,0.00,,CLR,0.00,VWS V14.01,2013-04-03 08:16:00,
2013-04-03 03:17:00,24.4,14.0,30.35,NNE,32,0.0,0.0,64,0.00,,CLR,0.00,VWS V14.01,2013-04-03 08:17:00,
2013-04-03 03:18:00,24.4,14.0,30.35,NNE,32,0.0,0.0,64,0.00,,CLR,0.00,VWS V14.01,2013-04-03 08:18:00,
2013-04-03 03:19:00,24.4,14.7,30.35,NNE,32,0.0,0.0,66,0.00,,CLR,0.00,VWS V14.01,2013-04-03 08:19:00,
2013-04-03 03:22:00,24.4,14.7,30.35,NNE,32,0.0,0.0,66,0.00,,CLR,0.00,VWS V14.01,2013-04-03 08:22:00,
2013-04-03 03:23:00,24.4,14.7,30.35,NNE,32,0.0,0.0,66,0.00,,CLR,0.00,VWS V14.01,2013-04-03 08:23:00,
2013-04-03 03:24:00,24.4,14.7,30.35,NNE,32,0.0,0.0,66,0.00,,CLR,0.00,VWS V14.01,2013-04-03 08:24:00,
2013-04-03 03:25:00,24.6,14.9,30.35,NNE,32,0.0,0.0,66,0.00,,CLR,0.00,VWS V14.01,2013-04-03 08:25:00,
2013-04-03 03:28:00,24.4,14.7,30.35,NNE,32,0.0,0.0,66,0.00,,CLR,0.00,VWS V14.01,2013-04-03 08:28:00,
2013-04-03 03:29:00,24.4,14.7,30.35,NNE,32,0.0,0.0,66,0.00,,CLR,0.00,VWS V14.01,2013-04-03 08:29:00,
2013-04-03 03:31:00,24.4,14.7,30.35,NNE,32,0.0,0.0,66,0.00,,CLR,0.00,VWS V14.01,2013-04-03 08:31:00,
2013-04-03 03:34:00,24.3,14.6,30.35,NNE,32,0.0,0.0,66,0.00,,CLR,0.00,VWS V14.01,2013-04-03 08:34:00,
2013-04-03 03:36:00,24.3,14.6,30.35,NNE,32,0.0,0.0,66,0.00,,CLR,0.00,VWS V14.01,2013-04-03 08:36:00,
2013-04-03 03:40:00,24.4,14.7,30.35,NNE,32,0.0,0.0,66,0.00,,CLR,0.00,VWS V14.01,2013-04-03 08:40:00,
2013-04-03 03:41:00,24.4,14.7,30.35,NNE,32,0.0,0.0,66,0.00,,CLR,0.00,VWS V14.01,2013-04-03 08:41:00,
2013-04-03 03:42:00,24.4,14.7,30.35,NNE,32,0.0,0.0,66,0.00,,CLR,0.00,VWS V14.01,2013-04-03 08:42:00,
2013-04-03 03:43:00,24.4,14.7,30.35,NNE,32,0.0,0.0,66,0.00,,CLR,0.00,VWS V14.01,2013-04-03 08:43:00,
2013-04-03 03:46:00,24.4,14.7,30.35,NNE,32,0.0,0.0,66,0.00,,CLR,0.00,VWS V14.01,2013-04-03 08:46:00,
2013-04-03 03:47:00,24.3,14.6,30.35,NNE,32,0.0,0.0,66,0.00,,CLR,0.00,VWS V14.01,2013-04-03 08:47:00,
2013-04-03 03:48:00,24.3,14.6,30.35,NNE,32,0.0,0.0,66,0.00,,CLR,0.00,VWS V14.01,2013-04-03 08:48:00,
2013-04-03 03:51:00,24.3,14.6,30.35,NNE,32,0.0,0.0,66,0.00,,CLR,0.00,VWS V14.01,2013-04-03 08:51:00,
2013-04-03 03:53:00,24.3,14.6,30.35,NNE,32,0.0,0.0,66,0.00,,CLR,0.00,VWS V14.01,2013-04-03 08:53:00,
2013-04-03 03:54:00,24.1,14.4,30.35,NNE,32,0.0,0.0,66,0.00,,CLR,0.00,VWS V14.01,2013-04-03 08:54:00,
2013-04-03 03:56:00,24.1,14.4,30.35,NNE,32,0.0,0.0,66,0.00,,CLR,0.00,VWS V14.01,2013-04-03 08:56:00,
2013-04-03 03:58:00,24.1,14.4,30.35,NNE,32,0.0,0.0,66,0.00,,CLR,0.00,VWS V14.01,2013-04-03 08:58:00,
2013-04-03 03:59:00,24.1,14.4,30.35,NNE,32,0.0,0.0,66,0.00,,CLR,0.00,VWS V14.01,2013-04-03 08:59:00,
2013-04-03 04:02:00,24.1,14.4,30.35,NNE,32,0.0,0.0,66,0.00,,CLR,0.00,VWS V14.01,2013-04-03 09:02:00,
2013-04-03 04:03:00,24.1,14.4,30.35,NNE,32,0.0,0.0,66,0.00,,CLR,0.00,VWS V14.01,2013-04-03 09:03:00,
2013-04-03 04:06:00,24.1,14.4,30.35,NNE,32,0.0,0.0,66,0.00,,CLR,0.00,VWS V14.01,2013-04-03 09:06:00,
2013-04-03 04:07:00,24.1,14.4,30.35,NNE,32,0.0,0.0,66,0.00,,CLR,0.00,VWS V14.01,2013-04-03 09:07:00,
2013-04-03 04:09:00,24.1,14.4,30.35,NNE,32,0.0,0.0,66,0.00,,CLR,0.00,VWS V14.01,2013-04-03 09:09:00,
2013-04-03 04:10:00,23.9,14.2,30.35,NNE,32,0.0,0.0,66,0.00,,CLR,0.00,VWS V14.01,2013-04-03 09:10:00,
2013-04-03 04:11:00,23.9,14.2,30.35,NNE,32,0.0,0.0,66,0.00,,CLR,0.00,VWS V14.01,2013-04-03 09:11:00,
2013-04-03 04:12:00,23.9,14.2,30.35,NNE,32,0.0,0.0,66,0.00,,CLR,0.00,VWS V14.01,2013-04-03 09:12:00,
2013-04-03 04:15:00,23.7,14.0,30.35,NNE,32,0.0,0.0,66,0.00,,CLR,0.00,VWS V14.01,2013-04-03 09:15:00,
2013-04-03 04:17:00,23.7,14.0,30.35,NNE,32,0.0,0.0,66,0.00,,CLR,0.00,VWS V14.01,2013-04-03 09:17:00,
2013-04-03 04:18:00,23.7,14.0,30.35,NNE,32,0.0,0.0,66,0.00,,CLR,0.00,VWS V14.01,2013-04-03 09:18:00,
2013-04-03 04:20:00,23.7,14.0,30.35,NNE,32,0.0,0.0,66,0.00,,CLR,0.00,VWS V14.01,2013-04-03 09:20:00,
2013-04-03 04:22:00,23.7,14.0,30.35,NNE,32,0.0,0.0,66,0.00,,CLR,0.00,VWS V14.01,2013-04-03 09:22:00,
2013-04-03 04:23:00,23.5,13.9,30.35,NNE,32,0.0,0.0,66,0.00,,CLR,0.00,VWS V14.01,2013-04-03 09:23:00,
2013-04-03 04:25:00,23.5,13.9,30.35,NNE,32,0.0,0.0,66,0.00,,CLR,0.00,VWS V14.01,2013-04-03 09:25:00,
2013-04-03 04:26:00,23.5,13.9,30.35,NNE,32,0.0,0.0,66,0.00,,CLR,0.00,VWS V14.01,2013-04-03 09:26:00,
2013-04-03 04:27:00,23.5,13.9,30.35,NNE,32,0.0,0.0,66,0.00,,CLR,0.00,VWS V14.01,2013-04-03 09:27:00,
2013-04-03 04:29:00,23.5,13.9,30.35,NNE,32,0.0,0.0,66,0.00,,CLR,0.00,VWS V14.01,2013-04-03 09:29:00,
2013-04-03 04:30:00,23.5,13.9,30.35,NNE,32,0.0,0.0,66,0.00,,CLR,0.00,VWS V14.01,2013-04-03 09:30:00,
2013-04-03 04:32:00,23.5,13.9,30.35,NNE,32,0.0,0.0,66,0.00,,CLR,0.00,VWS V14.01,2013-04-03 09:32:00,
2013-04-03 04:34:00,23.5,13.9,30.35,NNE,32,0.0,0.0,66,0.00,,CLR,0.00,VWS V14.01,2013-04-03 09:34:00,
2013-04-03 04:36:00,23.5,13.9,30.35,NNE,32,0.0,0.0,66,0.00,,CLR,0.00,VWS V14.01,2013-04-03 09:36:00,
2013-04-03 04:37:00,23.7,14.0,30.35,NNE,32,0.0,0.0,66,0.00,,CLR,0.00,VWS V14.01,2013-04-03 09:37:00,
2013-04-03 04:39:00,23.7,14.0,30.35,NNE,32,0.0,0.0,66,0.00,,CLR,0.00,VWS V14.01,2013-04-03 09:39:00,
2013-04-03 04:41:00,23.9,14.2,30.35,NNE,32,0.0,0.0,66,0.00,,CLR,0.00,VWS V14.01,2013-04-03 09:41:00,
2013-04-03 04:42:00,23.9,14.2,30.35,NNE,32,0.0,0.0,66,0.00,,CLR,0.00,VWS V14.01,2013-04-03 09:42:00,
2013-04-03 04:43:00,23.9,14.2,30.35,NNE,32,0.0,0.0,66,0.00,,CLR,0.00,VWS V14.01,2013-04-03 09:43:00,
2013-04-03 04:45:00,23.7,14.0,30.35,NNE,32,0.0,0.0,66,0.00,,CLR,0.00,VWS V14.01,2013-04-03 09:45:00,
2013-04-03 04:47:00,23.7,14.0,30.35,NNE,32,0.0,0.0,66,0.00,,CLR,0.00,VWS V14.01,2013-04-03 09:47:00,
2013-04-03 04:48:00,23.7,14.0,30.35,NNE,32,0.0,0.0,66,0.00,,CLR,0.00,VWS V14.01,2013-04-03 09:48:00,
2013-04-03 04:49:00,23.7,14.0,30.35,NNE,32,0.0,0.0,66,0.00,,CLR,0.00,VWS V14.01,2013-04-03 09:49:00,
2013-04-03 04:52:00,23.7,14.0,30.35,NNE,32,0.0,0.0,66,0.00,,CLR,0.00,VWS V14.01,2013-04-03 09:52:00,
2013-04-03 04:53:00,23.7,14.0,30.35,NNE,32,0.0,0.0,66,0.00,,CLR,0.00,VWS V14.01,2013-04-03 09:53:00,
2013-04-03 04:54:00,23.7,14.0,30.35,NNE,32,0.0,0.0,66,0.00,,CLR,0.00,VWS V14.01,2013-04-03 09:54:00,
2013-04-03 04:57:00,23.7,14.0,30.35,NNE,32,0.0,0.0,66,0.00,,CLR,0.00,VWS V14.01,2013-04-03 09:57:00,
2013-04-03 04:58:00,23.7,14.0,30.35,NNE,32,0.0,0.0,66,0.00,,CLR,0.00,VWS V14.01,2013-04-03 09:58:00,
2013-04-03 05:00:00,23.7,14.0,30.35,NNE,32,0.0,0.0,66,0.00,,CLR,0.00,VWS V14.01,2013-04-03 10:00:00,
2013-04-03 05:03:00,23.5,13.9,30.35,NNE,32,0.0,0.0,66,0.00,,CLR,0.00,VWS V14.01,2013-04-03 10:03:00,
2013-04-03 05:05:00,23.5,13.9,30.35,NNE,29,2.2,3.6,66,0.00,,CLR,0.00,VWS V14.01,2013-04-03 10:05:00,
2013-04-03 05:06:00,23.5,13.9,30.35,NNE,29,0.0,3.6,66,0.00,,CLR,0.00,VWS V14.01,2013-04-03 10:06:00,
2013-04-03 05:08:00,23.5,13.9,30.35,NNE,29,0.0,0.0,66,0.00,,CLR,0.00,VWS V14.01,2013-04-03 10:08:00,
2013-04-03 05:11:00,23.5,13.9,30.35,NNE,29,0.0,0.0,66,0.00,,CLR,0.00,VWS V14.01,2013-04-03 10:11:00,
2013-04-03 05:14:00,23.5,13.9,30.35,NNE,29,0.0,0.0,66,0.00,,CLR,0.00,VWS V14.01,2013-04-03 10:14:00,
2013-04-03 05:17:00,23.4,13.7,30.35,NE,37,0.0,0.0,66,0.00,,CLR,0.00,VWS V14.01,2013-04-03 10:17:00,
2013-04-03 05:18:00,23.4,13.7,30.35,NE,37,0.0,0.0,66,0.00,,CLR,0.00,VWS V14.01,2013-04-03 10:18:00,
2013-04-03 05:20:00,23.4,13.7,30.35,NE,37,0.0,0.0,66,0.00,,CLR,0.00,VWS V14.01,2013-04-03 10:20:00,
2013-04-03 05:22:00,23.4,13.7,30.35,NE,37,0.0,0.0,66,0.00,,CLR,0.00,VWS V14.01,2013-04-03 10:22:00,
2013-04-03 05:23:00,23.4,13.7,30.35,NE,37,0.0,0.0,66,0.00,,CLR,0.00,VWS V14.01,2013-04-03 10:23:00,
2013-04-03 05:25:00,23.4,13.7,30.35,NE,37,0.0,0.0,66,0.00,,CLR,0.00,VWS V14.01,2013-04-03 10:25:00,
2013-04-03 05:27:00,23.4,13.7,30.35,NE,37,0.0,0.0,66,0.00,,CLR,0.00,VWS V14.01,2013-04-03 10:27:00,
2013-04-03 05:28:00,23.4,13.7,30.35,NE,37,0.0,0.0,66,0.00,,CLR,0.00,VWS V14.01,2013-04-03 10:28:00,
2013-04-03 05:29:00,23.4,13.7,30.35,NE,37,0.0,0.0,66,0.00,,CLR,0.00,VWS V14.01,2013-04-03 10:29:00,
2013-04-03 05:30:00,23.2,13.5,30.35,NE,37,0.0,0.0,66,0.00,,CLR,0.00,VWS V14.01,2013-04-03 10:30:00,
2013-04-03 05:32:00,23.2,13.5,30.35,NE,37,0.0,0.0,66,0.00,,CLR,0.00,VWS V14.01,2013-04-03 10:32:00,
2013-04-03 05:33:00,23.0,13.4,30.35,NE,37,0.0,0.0,66,0.00,,CLR,0.00,VWS V14.01,2013-04-03 10:33:00,
2013-04-03 05:35:00,23.0,14.0,30.35,NE,37,0.0,0.0,68,0.00,,CLR,0.00,VWS V14.01,2013-04-03 10:35:00,
2013-04-03 05:38:00,23.2,14.2,30.35,NE,37,3.1,3.1,68,0.00,,CLR,0.00,VWS V14.01,2013-04-03 10:38:00,
2013-04-03 05:41:00,23.5,14.6,30.35,NE,37,0.0,0.0,68,0.00,,CLR,0.00,VWS V14.01,2013-04-03 10:41:00,
2013-04-03 05:43:00,23.5,14.6,30.35,NE,37,0.0,0.0,68,0.00,,CLR,0.00,VWS V14.01,2013-04-03 10:43:00,
2013-04-03 05:44:00,23.5,14.6,30.35,NE,37,2.2,2.7,68,0.00,,CLR,0.00,VWS V14.01,2013-04-03 10:44:00,
2013-04-03 05:47:00,23.5,14.6,30.35,NE,37,2.2,3.1,68,0.00,,CLR,0.00,VWS V14.01,2013-04-03 10:47:00,
2013-04-03 05:49:00,23.7,14.7,30.35,NE,37,0.0,0.0,68,0.00,,CLR,0.00,VWS V14.01,2013-04-03 10:49:00,
2013-04-03 05:50:00,23.7,14.7,30.35,NE,37,0.0,0.0,68,0.00,,CLR,0.00,VWS V14.01,2013-04-03 10:50:00,
2013-04-03 05:53:00,23.7,14.7,30.35,NE,36,0.0,0.0,68,0.00,,CLR,0.00,VWS V14.01,2013-04-03 10:53:00,
2013-04-03 05:54:00,23.7,14.7,30.35,NE,37,0.0,0.0,68,0.00,,CLR,0.00,VWS V14.01,2013-04-03 10:54:00,
2013-04-03 05:55:00,23.7,14.7,30.35,NE,37,0.0,0.0,68,0.00,,CLR,0.00,VWS V14.01,2013-04-03 10:55:00,
2013-04-03 05:56:00,23.7,14.7,30.35,NE,37,0.0,0.0,68,0.00,,CLR,0.00,VWS V14.01,2013-04-03 10:56:00,
2013-04-03 05:58:00,23.5,14.6,30.35,NE,37,2.2,2.2,68,0.00,,CLR,0.00,VWS V14.01,2013-04-03 10:58:00,
2013-04-03 06:00:00,23.5,14.6,30.35,NE,37,0.0,0.0,68,0.00,,CLR,0.00,VWS V14.01,2013-04-03 11:00:00,
2013-04-03 06:01:00,23.5,14.6,30.35,NE,37,0.0,0.0,68,0.00,,CLR,0.00,VWS V14.01,2013-04-03 11:01:00,
2013-04-03 06:04:00,23.5,14.6,30.35,NE,37,0.0,0.0,68,0.00,,CLR,0.00,VWS V14.01,2013-04-03 11:04:00,
2013-04-03 06:05:00,23.4,14.4,30.35,NE,36,0.0,0.0,68,0.00,,CLR,0.00,VWS V14.01,2013-04-03 11:05:00,
2013-04-03 06:06:00,23.4,14.4,30.35,NE,37,0.0,0.0,68,0.00,,CLR,0.00,VWS V14.01,2013-04-03 11:06:00,
2013-04-03 06:07:00,23.4,14.4,30.35,NE,37,0.0,0.0,68,0.00,,CLR,0.00,VWS V14.01,2013-04-03 11:07:00,
2013-04-03 06:09:00,23.2,14.2,30.35,NE,36,0.0,0.0,68,0.00,,CLR,0.00,VWS V14.01,2013-04-03 11:09:00,
2013-04-03 06:10:00,23.0,14.0,30.35,NE,36,0.0,0.0,68,0.00,,CLR,0.00,VWS V14.01,2013-04-03 11:10:00,
2013-04-03 06:12:00,22.8,13.9,30.35,NE,37,0.0,0.0,68,0.00,,CLR,0.00,VWS V14.01,2013-04-03 11:12:00,
2013-04-03 06:14:00,22.6,13.7,30.35,NE,36,0.0,0.0,68,0.00,,CLR,0.00,VWS V14.01,2013-04-03 11:14:00,
2013-04-03 06:15:00,22.6,13.7,30.35,NE,36,0.0,0.0,68,0.00,,CLR,0.00,VWS V14.01,2013-04-03 11:15:00,
2013-04-03 06:17:00,22.5,13.5,30.35,NE,36,0.0,0.0,68,0.00,,CLR,0.00,VWS V14.01,2013-04-03 11:17:00,
2013-04-03 06:20:00,22.3,13.3,30.35,NE,36,0.0,0.0,68,0.00,,CLR,0.00,VWS V14.01,2013-04-03 11:20:00,
2013-04-03 06:21:00,22.3,13.3,30.35,NE,36,0.0,0.0,68,0.00,,CLR,0.00,VWS V14.01,2013-04-03 11:21:00,
2013-04-03 06:23:00,22.3,13.3,30.35,NE,36,0.0,0.0,68,0.00,,CLR,0.00,VWS V14.01,2013-04-03 11:23:00,
2013-04-03 06:24:00,22.5,14.2,30.37,NE,37,0.0,0.0,70,0.00,,CLR,0.00,VWS V14.01,2013-04-03 11:24:00,
2013-04-03 06:25:00,22.6,14.3,30.37,NE,37,0.0,0.0,70,0.00,,CLR,0.00,VWS V14.01,2013-04-03 11:25:00,
2013-04-03 06:26:00,22.8,14.5,30.37,NE,36,0.0,0.0,70,0.00,,CLR,0.00,VWS V14.01,2013-04-03 11:26:00,
2013-04-03 06:28:00,23.0,14.7,30.37,NE,36,0.0,0.0,70,0.00,,CLR,0.00,VWS V14.01,2013-04-03 11:28:00,
2013-04-03 06:29:00,23.0,14.7,30.37,NE,36,0.0,0.0,70,0.00,,CLR,0.00,VWS V14.01,2013-04-03 11:29:00,
2013-04-03 06:31:00,23.2,14.9,30.37,NE,36,0.0,0.0,70,0.00,,CLR,0.00,VWS V14.01,2013-04-03 11:31:00,
2013-04-03 06:32:00,23.2,14.9,30.37,NE,36,0.0,0.0,70,0.00,,CLR,0.00,VWS V14.01,2013-04-03 11:32:00,
2013-04-03 06:34:00,23.2,14.9,30.37,NE,36,0.0,0.0,70,0.00,,CLR,0.00,VWS V14.01,2013-04-03 11:34:00,
2013-04-03 06:37:00,23.2,14.9,30.37,NE,36,0.0,0.0,70,0.00,,CLR,0.00,VWS V14.01,2013-04-03 11:37:00,
2013-04-03 06:38:00,23.2,14.9,30.37,NE,37,0.0,0.0,70,0.00,,CLR,0.00,VWS V14.01,2013-04-03 11:38:00,
2013-04-03 06:39:00,23.0,14.7,30.37,NE,37,0.0,0.0,70,0.00,,CLR,0.00,VWS V14.01,2013-04-03 11:39:00,
2013-04-03 06:40:00,23.0,14.7,30.37,NE,37,0.0,0.0,70,0.00,,CLR,0.00,VWS V14.01,2013-04-03 11:40:00,
2013-04-03 06:42:00,23.0,14.7,30.37,NE,36,0.0,0.0,70,0.00,,CLR,0.00,VWS V14.01,2013-04-03 11:42:00,
2013-04-03 06:44:00,23.0,14.7,30.37,NE,37,0.0,0.0,70,0.00,,CLR,0.00,VWS V14.01,2013-04-03 11:44:00,
2013-04-03 06:45:00,23.0,14.7,30.37,NE,36,0.0,0.0,70,0.00,,CLR,0.00,VWS V14.01,2013-04-03 11:45:00,
2013-04-03 06:47:00,23.0,14.7,30.37,NE,37,0.0,0.0,70,0.00,,CLR,0.00,VWS V14.01,2013-04-03 11:47:00,
2013-04-03 06:49:00,23.0,14.7,30.37,NE,37,0.0,0.0,70,0.00,,CLR,0.00,VWS V14.01,2013-04-03 11:49:00,
2013-04-03 06:50:00,23.0,14.7,30.37,NE,37,0.0,0.0,70,0.00,,CLR,0.00,VWS V14.01,2013-04-03 11:50:00,
2013-04-03 06:52:00,23.0,14.7,30.37,NE,36,0.0,0.0,70,0.00,,CLR,0.00,VWS V14.01,2013-04-03 11:52:00,
2013-04-03 06:54:00,23.4,15.0,30.37,NE,36,0.0,0.0,70,0.00,,CLR,0.00,VWS V14.01,2013-04-03 11:54:00,
2013-04-03 06:55:00,23.4,15.0,30.37,NE,36,0.0,0.0,70,0.00,,CLR,0.00,VWS V14.01,2013-04-03 11:55:00,
2013-04-03 06:57:00,23.5,15.2,30.37,NE,35,3.6,3.6,70,0.00,,CLR,0.00,VWS V14.01,2013-04-03 11:57:00,
2013-04-03 06:58:00,23.5,15.2,30.37,NE,35,3.1,3.1,70,0.00,,CLR,0.00,VWS V14.01,2013-04-03 11:58:00,
2013-04-03 07:00:00,23.7,15.4,30.37,NE,34,3.6,4.0,70,0.00,,CLR,0.00,VWS V14.01,2013-04-03 12:00:00,
2013-04-03 07:02:00,23.9,15.6,30.37,NNE,23,4.0,4.0,70,0.00,,CLR,0.00,VWS V14.01,2013-04-03 12:02:00,
2013-04-03 07:04:00,24.1,15.7,30.37,NNE,23,4.0,4.0,70,0.00,,CLR,0.00,VWS V14.01,2013-04-03 12:04:00,
2013-04-03 07:05:00,24.1,15.7,30.37,NNE,23,3.1,3.6,70,0.00,,CLR,0.00,VWS V14.01,2013-04-03 12:05:00,
2013-04-03 07:07:00,24.3,15.9,30.37,NNE,23,2.7,3.1,70,0.00,,CLR,0.00,VWS V14.01,2013-04-03 12:07:00,
2013-04-03 07:10:00,24.3,15.9,30.40,NNE,23,3.1,3.1,70,0.00,,CLR,0.00,VWS V14.01,2013-04-03 12:10:00,
2013-04-03 07:14:00,24.1,15.7,30.40,NNE,23,2.7,3.6,70,0.00,,CLR,0.00,VWS V14.01,2013-04-03 12:14:00,
2013-04-03 07:15:00,24.3,15.9,30.40,NNE,23,2.7,3.1,70,0.00,,CLR,0.00,VWS V14.01,2013-04-03 12:15:00,
2013-04-03 07:16:00,24.3,15.9,30.40,NNE,23,3.6,3.6,70,0.00,,CLR,0.00,VWS V14.01,2013-04-03 12:16:00,
2013-04-03 07:19:00,24.4,16.1,30.40,NNE,22,3.6,3.6,70,0.00,,CLR,0.00,VWS V14.01,2013-04-03 12:19:00,
2013-04-03 07:20:00,24.4,16.1,30.40,NNE,23,3.6,3.6,70,0.00,,CLR,0.00,VWS V14.01,2013-04-03 12:20:00,
2013-04-03 07:21:00,24.4,16.1,30.40,NNE,23,3.1,4.0,70,0.00,,CLR,0.00,VWS V14.01,2013-04-03 12:21:00,
2013-04-03 07:24:00,24.8,16.4,30.40,NNE,18,4.0,4.5,70,0.00,,CLR,0.00,VWS V14.01,2013-04-03 12:24:00,
2013-04-03 07:25:00,24.8,16.4,30.40,NNE,18,3.6,4.9,70,0.00,,CLR,0.00,VWS V14.01,2013-04-03 12:25:00,
2013-04-03 07:26:00,24.8,16.4,30.40,NNE,18,3.6,4.9,70,0.00,,CLR,0.00,VWS V14.01,2013-04-03 12:26:00,
2013-04-03 07:27:00,25.0,16.6,30.40,NNE,18,2.2,2.7,70,0.00,,CLR,0.00,VWS V14.01,2013-04-03 12:27:00,
2013-04-03 07:29:00,25.2,16.8,30.40,NNE,18,0.0,0.0,70,0.00,,CLR,0.00,VWS V14.01,2013-04-03 12:29:00,
2013-04-03 07:30:00,25.2,16.8,30.40,NNE,18,0.0,0.0,70,0.00,,CLR,0.00,VWS V14.01,2013-04-03 12:30:00,
2013-04-03 07:31:00,25.2,16.8,30.40,NNE,18,0.0,0.0,70,0.00,,CLR,0.00,VWS V14.01,2013-04-03 12:31:00,
2013-04-03 07:33:00,25.2,16.8,30.40,NNE,18,0.0,0.0,70,0.00,,CLR,0.00,VWS V14.01,2013-04-03 12:33:00,
2013-04-03 07:34:00,25.3,16.9,30.40,NNE,18,0.0,0.0,70,0.00,,CLR,0.00,VWS V14.01,2013-04-03 12:34:00,
2013-04-03 07:37:00,25.5,17.1,30.40,NNE,18,0.0,0.0,70,0.00,,CLR,0.00,VWS V14.01,2013-04-03 12:37:00,
2013-04-03 07:38:00,25.7,17.3,30.40,NNE,18,0.0,0.0,70,0.00,,CLR,0.00,VWS V14.01,2013-04-03 12:38:00,
2013-04-03 07:40:00,25.9,17.5,30.40,NNE,18,3.1,4.0,70,0.00,,CLR,0.00,VWS V14.01,2013-04-03 12:40:00,
2013-04-03 07:42:00,26.2,17.1,30.40,NNE,18,3.6,4.0,68,0.00,,CLR,0.00,VWS V14.01,2013-04-03 12:42:00,
2013-04-03 07:43:00,26.2,17.1,30.40,NNE,18,2.7,3.1,68,0.00,,CLR,0.00,VWS V14.01,2013-04-03 12:43:00,
2013-04-03 07:44:00,26.4,17.3,30.40,NNE,18,2.2,3.1,68,0.00,,CLR,0.00,VWS V14.01,2013-04-03 12:44:00,
2013-04-03 07:45:00,26.6,17.5,30.40,NNE,30,3.1,3.1,68,0.00,,CLR,0.00,VWS V14.01,2013-04-03 12:45:00,
2013-04-03 07:48:00,26.8,17.0,30.40,NE,40,4.5,5.8,66,0.00,,CLR,0.00,VWS V14.01,2013-04-03 12:48:00,
2013-04-03 07:49:00,27.0,17.1,30.40,NE,37,4.0,6.3,66,0.00,,CLR,0.00,VWS V14.01,2013-04-03 12:49:00,
2013-04-03 07:50:00,27.0,17.1,30.40,NE,34,5.8,5.8,66,0.00,,CLR,0.00,VWS V14.01,2013-04-03 12:50:00,
2013-04-03 07:51:00,27.1,16.6,30.40,NE,39,4.0,5.8,64,0.00,,CLR,0.00,VWS V14.01,2013-04-03 12:51:00,
2013-04-03 07:53:00,27.5,16.9,30.40,NE,38,2.7,4.0,64,0.00,,CLR,0.00,VWS V14.01,2013-04-03 12:53:00,
2013-04-03 07:54:00,27.5,16.9,30.40,NNE,25,3.1,4.9,64,0.00,,CLR,0.00,VWS V14.01,2013-04-03 12:54:00,
2013-04-03 07:56:00,27.9,17.3,30.40,NE,34,5.4,5.4,64,0.00,,CLR,0.00,VWS V14.01,2013-04-03 12:56:00,
2013-04-03 07:57:00,27.9,17.3,30.40,NE,34,2.7,5.4,64,0.00,,CLR,0.00,VWS V14.01,2013-04-03 12:57:00,
2013-04-03 07:58:00,27.9,17.3,30.40,NE,37,2.7,3.1,64,0.00,,CLR,0.00,VWS V14.01,2013-04-03 12:58:00,
2013-04-03 07:59:00,28.0,17.5,30.40,NNE,24,3.1,3.6,64,0.00,,CLR,0.00,VWS V14.01,2013-04-03 12:59:00,
2013-04-03 08:01:00,28.2,17.6,30.40,NE,40,2.7,5.4,64,0.00,,CLR,0.00,VWS V14.01,2013-04-03 13:01:00,
2013-04-03 08:03:00,28.4,17.8,30.40,NE,39,4.0,4.0,64,0.00,,CLR,0.00,VWS V14.01,2013-04-03 13:03:00,
2013-04-03 08:04:00,28.6,17.2,30.40,NE,35,3.6,3.6,62,0.00,,CLR,0.00,VWS V14.01,2013-04-03 13:04:00,
2013-04-03 08:05:00,28.6,17.2,30.40,NE,37,5.4,5.4,62,0.00,,CLR,0.00,VWS V14.01,2013-04-03 13:05:00,
2013-04-03 08:07:00,28.8,17.4,30.40,NE,39,0.0,0.0,62,0.00,,CLR,0.00,VWS V14.01,2013-04-03 13:07:00,
2013-04-03 08:08:00,28.8,17.4,30.40,NE,40,4.9,5.8,62,0.00,,CLR,0.00,VWS V14.01,2013-04-03 13:08:00,
2013-04-03 08:09:00,28.9,17.6,30.40,NE,38,4.0,4.0,62,0.00,,CLR,0.00,VWS V14.01,2013-04-03 13:09:00,
2013-04-03 08:10:00,28.9,17.6,30.40,NE,38,3.6,3.6,62,0.00,,CLR,0.00,VWS V14.01,2013-04-03 13:10:00,
2013-04-03 08:12:00,29.3,17.9,30.40,NE,43,4.0,4.0,62,0.00,,CLR,0.00,VWS V14.01,2013-04-03 13:12:00,
2013-04-03 08:13:00,29.3,17.9,30.40,NE,35,3.1,4.0,62,0.00,,CLR,0.00,VWS V14.01,2013-04-03 13:13:00,
2013-04-03 08:14:00,29.5,18.1,30.40,NE,35,2.7,4.0,62,0.00,,CLR,0.00,VWS V14.01,2013-04-03 13:14:00,
2013-04-03 08:16:00,29.5,18.1,30.40,NE,35,2.7,2.7,62,0.00,,CLR,0.00,VWS V14.01,2013-04-03 13:16:00,
2013-04-03 08:18:00,29.7,18.2,30.40,NE,35,0.0,2.2,62,0.00,,CLR,0.00,VWS V14.01,2013-04-03 13:18:00,
2013-04-03 08:19:00,30.0,18.6,30.40,NE,35,0.0,2.7,62,0.00,,CLR,0.00,VWS V14.01,2013-04-03 13:19:00,
2013-04-03 08:22:00,30.2,18.0,30.40,NE,54,2.7,3.1,60,0.00,,CLR,0.00,VWS V14.01,2013-04-03 13:22:00,
2013-04-03 08:23:00,30.7,18.5,30.40,NE,54,0.0,0.0,60,0.00,,CLR,0.00,VWS V14.01,2013-04-03 13:23:00,
2013-04-03 08:24:00,30.7,18.5,30.40,NE,54,0.0,0.0,60,0.00,,CLR,0.00,VWS V14.01,2013-04-03 13:24:00,
2013-04-03 08:27:00,31.3,19.0,30.40,NE,54,3.1,4.5,60,0.00,,CLR,0.00,VWS V14.01,2013-04-03 13:27:00,
2013-04-03 08:28:00,31.6,17.8,30.40,East,79,4.5,4.5,56,0.00,,CLR,0.00,VWS V14.01,2013-04-03 13:28:00,
2013-04-03 08:29:00,31.6,17.8,30.40,East,80,3.1,4.5,56,0.00,,CLR,0.00,VWS V14.01,2013-04-03 13:29:00,
2013-04-03 08:33:00,32.5,18.6,30.40,ENE,75,5.4,5.4,56,0.00,,CLR,0.00,VWS V14.01,2013-04-03 13:33:00,
2013-04-03 08:34:00,32.5,18.6,30.40,ENE,77,5.4,5.4,56,0.00,,CLR,0.00,VWS V14.01,2013-04-03 13:34:00,
2013-04-03 08:38:00,33.1,16.5,30.40,ENE,70,2.7,4.5,50,0.00,,CLR,0.00,VWS V14.01,2013-04-03 13:38:00,
2013-04-03 08:39:00,33.1,16.5,30.40,ENE,69,2.2,2.7,50,0.00,,CLR,0.00,VWS V14.01,2013-04-03 13:39:00,
2013-04-03 08:41:00,33.3,16.6,30.40,ENE,67,3.1,4.0,50,0.00,,CLR,0.00,VWS V14.01,2013-04-03 13:41:00,
2013-04-03 08:44:00,33.6,17.0,30.40,NNE,22,4.0,4.9,50,0.00,,CLR,0.00,VWS V14.01,2013-04-03 13:44:00,
2013-04-03 08:45:00,33.8,17.1,30.40,NNE,31,2.2,4.0,50,0.00,,CLR,0.00,VWS V14.01,2013-04-03 13:45:00,
2013-04-03 08:46:00,34.0,17.3,30.40,NE,39,3.6,4.0,50,0.00,,CLR,0.00,VWS V14.01,2013-04-03 13:46:00,
2013-04-03 08:49:00,34.3,17.6,30.40,NE,46,0.0,2.7,50,0.00,,CLR,0.00,VWS V14.01,2013-04-03 13:49:00,
2013-04-03 08:50:00,34.3,14.7,30.40,NE,40,3.6,3.6,44,0.00,,CLR,0.00,VWS V14.01,2013-04-03 13:50:00,
2013-04-03 08:51:00,34.5,14.9,30.40,NE,56,3.6,3.6,44,0.00,,CLR,0.00,VWS V14.01,2013-04-03 13:51:00,
2013-04-03 08:52:00,34.7,15.0,30.40,NE,46,3.6,3.6,44,0.00,,CLR,0.00,VWS V14.01,2013-04-03 13:52:00,
2013-04-03 08:54:00,35.1,15.4,30.40,ENE,77,5.8,6.3,44,0.00,,CLR,0.00,VWS V14.01,2013-04-03 13:54:00,
2013-04-03 08:55:00,35.2,15.5,30.40,ENE,59,3.1,6.3,44,0.00,,CLR,0.00,VWS V14.01,2013-04-03 13:55:00,
2013-04-03 08:56:00,35.2,15.5,30.40,NE,51,4.5,4.5,44,0.00,,CLR,0.00,VWS V14.01,2013-04-03 13:56:00,
2013-04-03 08:57:00,35.4,15.7,30.40,ENE,66,4.9,6.3,44,0.00,,CLR,0.00,VWS V14.01,2013-04-03 13:57:00,
2013-04-03 09:00:00,35.6,15.9,30.40,ENE,62,4.0,5.8,44,0.00,,CLR,0.00,VWS V14.01,2013-04-03 14:00:00,
2013-04-03 09:01:00,35.8,16.0,30.40,NE,53,4.9,4.9,44,0.00,,CLR,0.00,VWS V14.01,2013-04-03 14:01:00,
2013-04-03 09:04:00,36.3,16.5,30.40,ENE,66,0.0,3.1,44,0.00,,CLR,0.00,VWS V14.01,2013-04-03 14:04:00,
2013-04-03 09:05:00,36.3,16.5,30.40,ENE,66,3.1,3.1,44,0.00,,CLR,0.00,VWS V14.01,2013-04-03 14:05:00,
2013-04-03 09:06:00,36.5,16.7,30.40,NE,45,3.6,3.6,44,0.00,,CLR,0.00,VWS V14.01,2013-04-03 14:06:00,
2013-04-03 09:07:00,36.7,16.8,30.40,NE,45,2.7,2.7,44,0.00,,CLR,0.00,VWS V14.01,2013-04-03 14:07:00,
2013-04-03 09:10:00,37.0,17.2,30.40,East,85,8.1,8.3,44,0.00,,CLR,0.00,VWS V14.01,2013-04-03 14:10:00,
2013-04-03 09:11:00,37.0,13.8,30.40,East,88,5.8,8.3,38,0.00,,CLR,0.00,VWS V14.01,2013-04-03 14:11:00,
2013-04-03 09:12:00,37.2,14.0,30.40,ENE,70,2.7,4.0,38,0.00,,CLR,0.00,VWS V14.01,2013-04-03 14:12:00,
2013-04-03 09:15:00,37.4,14.1,30.40,NE,42,2.2,2.2,38,0.00,,CLR,0.00,VWS V14.01,2013-04-03 14:15:00,
2013-04-03 09:16:00,37.6,14.3,30.40,NE,47,3.6,4.0,38,0.00,,CLR,0.00,VWS V14.01,2013-04-03 14:16:00,
2013-04-03 09:17:00,37.8,14.4,30.40,East,81,5.4,5.8,38,0.00,,CLR,0.00,VWS V14.01,2013-04-03 14:17:00,
2013-04-03 09:18:00,37.9,14.6,30.40,ENE,78,5.8,7.6,38,0.00,,CLR,0.00,VWS V14.01,2013-04-03 14:18:00,
2013-04-03 09:20:00,38.1,14.8,30.40,East,89,4.0,4.0,38,0.00,,CLR,0.00,VWS V14.01,2013-04-03 14:20:00,
2013-04-03 09:22:00,38.3,14.9,30.40,East,83,5.4,5.4,38,0.00,,CLR,0.00,VWS V14.01,2013-04-03 14:22:00,
2013-04-03 09:23:00,38.5,15.1,30.40,ENE,78,4.0,4.0,38,0.00,,CLR,0.00,VWS V14.01,2013-04-03 14:23:00,
2013-04-03 09:25:00,38.7,15.3,30.40,ENE,75,4.0,5.8,38,0.00,,CLR,0.00,VWS V14.01,2013-04-03 14:25:00,
2013-04-03 09:27:00,38.8,15.4,30.40,ENE,69,3.1,4.9,38,0.00,,CLR,0.00,VWS V14.01,2013-04-03 14:27:00,
2013-04-03 09:29:00,39.0,15.6,30.40,ENE,74,3.6,3.6,38,0.00,,CLR,0.00,VWS V14.01,2013-04-03 14:29:00,
2013-04-03 09:31:00,39.2,14.5,30.40,ENE,68,3.6,5.4,36,0.00,,CLR,0.00,VWS V14.01,2013-04-03 14:31:00,
2013-04-03 09:32:00,39.4,14.7,30.40,ENE,74,2.7,5.8,36,0.00,,CLR,0.00,VWS V14.01,2013-04-03 14:32:00,
2013-04-03 09:34:00,39.7,15.0,30.40,ENE,66,4.0,4.0,36,0.00,,CLR,0.00,VWS V14.01,2013-04-03 14:34:00,
2013-04-03 09:35:00,39.9,15.1,30.40,East,100,5.4,5.4,36,0.00,,CLR,0.00,VWS V14.01,2013-04-03 14:35:00,
2013-04-03 09:36:00,39.9,15.1,30.40,ENE,72,5.8,5.8,36,0.00,,CLR,0.00,VWS V14.01,2013-04-03 14:36:00,
2013-04-03 09:37:00,40.3,15.5,30.40,ENE,75,4.0,5.8,36,0.00,,CLR,0.00,VWS V14.01,2013-04-03 14:37:00,
2013-04-03 09:39:00,40.6,15.8,30.40,ENE,62,4.0,4.0,36,0.00,,CLR,0.00,VWS V14.01,2013-04-03 14:39:00,
2013-04-03 09:41:00,40.8,15.9,30.40,ENE,67,5.4,7.6,36,0.00,,CLR,0.00,VWS V14.01,2013-04-03 14:41:00,
2013-04-03 09:42:00,40.8,15.9,30.40,East,83,5.8,5.8,36,0.00,,CLR,0.00,VWS V14.01,2013-04-03 14:42:00,
2013-04-03 09:43:00,41.0,16.1,30.40,East,79,6.3,8.3,36,0.00,,CLR,0.00,VWS V14.01,2013-04-03 14:43:00,
2013-04-03 09:45:00,40.8,15.9,30.40,ENE,74,4.0,6.3,36,0.00,,CLR,0.00,VWS V14.01,2013-04-03 14:45:00,
2013-04-03 09:47:00,41.0,16.1,30.40,ENE,59,3.1,3.1,36,0.00,,CLR,0.00,VWS V14.01,2013-04-03 14:47:00,
2013-04-03 09:48:00,41.0,16.1,30.40,ENE,67,6.3,6.3,36,0.00,,CLR,0.00,VWS V14.01,2013-04-03 14:48:00,
2013-04-03 09:51:00,41.4,16.4,30.40,ENE,77,2.7,4.5,36,0.00,,CLR,0.00,VWS V14.01,2013-04-03 14:51:00,
2013-04-03 09:52:00,41.5,16.6,30.40,East,79,3.6,6.3,36,0.00,,CLR,0.00,VWS V14.01,2013-04-03 14:52:00,
2013-04-03 09:53:00,41.5,16.6,30.40,East,79,3.6,6.3,36,0.00,,CLR,0.00,VWS V14.01,2013-04-03 14:53:00,
2013-04-03 09:55:00,41.7,16.8,30.40,ENE,63,4.0,4.0,36,0.00,,CLR,0.00,VWS V14.01,2013-04-03 14:55:00,
2013-04-03 09:58:00,42.1,17.1,30.40,East,88,3.1,4.0,36,0.00,,CLR,0.00,VWS V14.01,2013-04-03 14:58:00,
2013-04-03 09:59:00,42.3,17.2,30.40,ENE,67,7.6,7.6,36,0.00,,CLR,0.00,VWS V14.01,2013-04-03 14:59:00,
2013-04-03 10:00:00,42.4,17.4,30.40,ENE,60,3.1,7.6,36,0.00,,CLR,0.00,VWS V14.01,2013-04-03 15:00:00,
2013-04-03 10:03:00,42.8,17.7,30.40,ENE,61,5.4,6.3,36,0.00,,CLR,0.00,VWS V14.01,2013-04-03 15:03:00,
2013-04-03 10:04:00,43.0,17.9,30.40,ENE,61,4.9,6.3,36,0.00,,CLR,0.00,VWS V14.01,2013-04-03 15:04:00,
2013-04-03 10:06:00,43.2,18.0,30.40,East,97,4.0,5.8,36,0.00,,CLR,0.00,VWS V14.01,2013-04-03 15:06:00,
2013-04-03 10:08:00,43.5,18.4,30.40,ENE,69,2.7,5.8,36,0.00,,CLR,0.00,VWS V14.01,2013-04-03 15:08:00,
2013-04-03 10:09:00,43.5,18.4,30.40,East,84,9.6,9.6,36,0.00,,CLR,0.00,VWS V14.01,2013-04-03 15:09:00,
2013-04-03 10:10:00,43.5,18.4,30.40,East,81,7.6,8.7,36,0.00,,CLR,0.00,VWS V14.01,2013-04-03 15:10:00,
2013-04-03 10:11:00,43.7,18.5,30.40,ENE,65,4.9,4.9,36,0.00,,CLR,0.00,VWS V14.01,2013-04-03 15:11:00,
2013-04-03 10:14:00,43.7,18.5,30.40,ENE,70,5.4,5.4,36,0.00,,CLR,0.00,VWS V14.01,2013-04-03 15:14:00,
2013-04-03 10:15:00,43.9,18.7,30.40,ENE,67,3.6,5.4,36,0.00,,CLR,0.00,VWS V14.01,2013-04-03 15:15:00,
2013-04-03 10:17:00,44.1,18.8,30.40,East,86,6.3,6.3,36,0.00,,CLR,0.00,VWS V14.01,2013-04-03 15:17:00,
2013-04-03 10:18:00,44.2,19.0,30.40,East,84,8.1,8.1,36,0.00,,CLR,0.00,VWS V14.01,2013-04-03 15:18:00,
2013-04-03 10:20:00,44.4,19.1,30.40,East,87,5.4,8.3,36,0.00,,CLR,0.00,VWS V14.01,2013-04-03 15:20:00,
2013-04-03 10:23:00,44.6,18.0,30.40,ENE,71,5.4,6.3,34,0.00,,CLR,0.00,VWS V14.01,2013-04-03 15:23:00,
2013-04-03 10:24:00,44.6,18.0,30.40,East,80,2.7,6.3,34,0.00,,CLR,0.00,VWS V14.01,2013-04-03 15:24:00,
2013-04-03 10:25:00,44.6,18.0,30.40,East,88,5.4,6.3,34,0.00,,CLR,0.00,VWS V14.01,2013-04-03 15:25:00,
2013-04-03 10:26:00,44.8,18.1,30.40,ENE,72,5.8,6.3,34,0.00,,CLR,0.00,VWS V14.01,2013-04-03 15:26:00,
2013-04-03 10:29:00,45.1,18.5,30.40,ENE,76,5.4,5.8,34,0.00,,CLR,0.00,VWS V14.01,2013-04-03 15:29:00,
2013-04-03 10:30:00,45.1,18.5,30.40,ENE,74,3.6,5.8,34,0.00,,CLR,0.00,VWS V14.01,2013-04-03 15:30:00,
2013-04-03 10:32:00,45.5,18.8,30.40,ENE,74,3.6,3.6,34,0.00,,CLR,0.00,VWS V14.01,2013-04-03 15:32:00,
2013-04-03 10:35:00,46.0,19.3,30.40,East,82,6.3,6.3,34,0.00,,CLR,0.00,VWS V14.01,2013-04-03 15:35:00,
2013-04-03 10:36:00,46.2,19.4,30.40,NE,48,4.9,8.7,34,0.00,,CLR,0.00,VWS V14.01,2013-04-03 15:36:00,
2013-04-03 10:37:00,46.4,19.6,30.40,ENE,78,8.3,8.3,34,0.00,,CLR,0.00,VWS V14.01,2013-04-03 15:37:00,
2013-04-03 10:40:00,46.4,19.6,30.40,SE,130,4.5,8.3,34,0.00,,CLR,0.00,VWS V14.01,2013-04-03 15:40:00,
2013-04-03 10:41:00,46.4,19.6,30.40,ESE,123,3.1,6.3,34,0.00,,CLR,0.00,VWS V14.01,2013-04-03 15:41:00,
2013-04-03 10:42:00,46.4,19.6,30.40,ENE,73,6.3,6.3,34,0.00,,CLR,0.00,VWS V14.01,2013-04-03 15:42:00,
2013-04-03 10:43:00,46.4,19.6,30.40,East,94,5.8,6.3,34,0.00,,CLR,0.00,VWS V14.01,2013-04-03 15:43:00,
2013-04-03 10:46:00,46.4,19.6,30.40,East,83,8.1,9.2,34,0.00,,CLR,0.00,VWS V14.01,2013-04-03 15:46:00,
2013-04-03 10:47:00,46.4,19.6,30.40,ENE,63,8.7,8.7,34,0.00,,CLR,0.00,VWS V14.01,2013-04-03 15:47:00,
2013-04-03 10:48:00,46.4,19.6,30.40,ENE,76,4.9,8.7,34,0.00,,CLR,0.00,VWS V14.01,2013-04-03 15:48:00,
2013-04-03 10:51:00,46.6,19.7,30.40,ENE,63,7.6,7.6,34,0.00,,CLR,0.00,VWS V14.01,2013-04-03 15:51:00,
2013-04-03 10:52:00,46.6,19.7,30.40,ENE,69,2.7,7.6,34,0.00,,CLR,0.00,VWS V14.01,2013-04-03 15:52:00,
2013-04-03 10:53:00,46.8,19.9,30.40,ESE,107,6.3,6.3,34,0.00,,CLR,0.00,VWS V14.01,2013-04-03 15:53:00,
2013-04-03 10:54:00,46.9,20.0,30.40,ENE,67,4.9,4.9,34,0.00,,CLR,0.00,VWS V14.01,2013-04-03 15:54:00,
2013-04-03 10:56:00,46.9,20.0,30.40,NE,46,4.0,4.0,34,0.00,,CLR,0.00,VWS V14.01,2013-04-03 15:56:00,
2013-04-03 10:57:00,46.9,20.0,30.40,ENE,60,4.9,5.4,34,0.00,,CLR,0.00,VWS V14.01,2013-04-03 15:57:00,
2013-04-03 10:58:00,47.1,20.2,30.40,ESE,110,6.3,7.2,34,0.00,,CLR,0.00,VWS V14.01,2013-04-03 15:58:00,
2013-04-03 11:00:00,47.3,20.4,30.40,East,89,2.7,3.1,34,0.00,,CLR,0.00,VWS V14.01,2013-04-03 16:00:00,
2013-04-03 11:01:00,47.5,20.5,30.40,ENE,78,2.7,8.3,34,0.00,,CLR,0.00,VWS V14.01,2013-04-03 16:01:00,
2013-04-03 11:03:00,47.5,20.5,30.40,SE,138,7.6,7.6,34,0.00,,CLR,0.00,VWS V14.01,2013-04-03 16:03:00,
2013-04-03 11:04:00,47.5,20.5,30.40,ESE,109,3.1,6.3,34,0.00,,CLR,0.00,VWS V14.01,2013-04-03 16:04:00,
2013-04-03 11:06:00,47.5,20.5,30.40,ESE,109,3.1,4.9,34,0.00,,CLR,0.00,VWS V14.01,2013-04-03 16:06:00,
2013-04-03 11:07:00,47.7,20.7,30.40,East,79,3.6,4.9,34,0.00,,CLR,0.00,VWS V14.01,2013-04-03 16:07:00,
2013-04-03 11:09:00,47.8,20.9,30.40,ENE,62,5.4,5.4,34,0.00,,CLR,0.00,VWS V14.01,2013-04-03 16:09:00,
2013-04-03 11:10:00,47.8,20.9,30.40,NE,38,4.5,5.4,34,0.00,,CLR,0.00,VWS V14.01,2013-04-03 16:10:00,
2013-04-03 11:12:00,48.0,21.0,30.40,ENE,70,6.3,6.3,34,0.00,,CLR,0.00,VWS V14.01,2013-04-03 16:12:00,
2013-04-03 11:15:00,48.2,19.7,30.40,ENE,70,6.3,6.3,32,0.00,,CLR,0.00,VWS V14.01,2013-04-03 16:15:00,
2013-04-03 11:16:00,48.4,19.9,30.40,ENE,72,5.4,6.3,32,0.00,,CLR,0.00,VWS V14.01,2013-04-03 16:16:00,
2013-04-03 11:18:00,48.7,20.2,30.40,ENE,66,5.4,5.4,32,0.00,,CLR,0.00,VWS V14.01,2013-04-03 16:18:00,
2013-04-03 11:20:00,48.9,20.4,30.40,NNE,32,3.6,5.4,32,0.00,,CLR,0.00,VWS V14.01,2013-04-03 16:20:00,
2013-04-03 11:23:00,49.1,20.5,30.40,NNE,23,4.9,5.8,32,0.00,,CLR,0.00,VWS V14.01,2013-04-03 16:23:00,
2013-04-03 11:24:00,49.1,20.5,30.40,East,83,2.7,5.4,32,0.00,,CLR,0.00,VWS V14.01,2013-04-03 16:24:00,
2013-04-03 11:26:00,49.1,20.5,30.40,ENE,68,6.3,8.3,32,0.00,,CLR,0.00,VWS V14.01,2013-04-03 16:26:00,
2013-04-03 11:28:00,49.1,20.5,30.40,East,93,2.2,3.1,32,0.00,,CLR,0.00,VWS V14.01,2013-04-03 16:28:00,
2013-04-03 11:29:00,49.1,20.5,30.40,SSE,150,5.8,6.3,32,0.00,,CLR,0.00,VWS V14.01,2013-04-03 16:29:00,
2013-04-03 11:30:00,49.1,20.5,30.40,ESE,122,3.6,3.6,32,0.00,,CLR,0.00,VWS V14.01,2013-04-03 16:30:00,
2013-04-03 11:31:00,49.1,20.5,30.40,SE,138,5.8,5.8,32,0.00,,CLR,0.00,VWS V14.01,2013-04-03 16:31:00,
2013-04-03 11:34:00,49.3,20.7,30.40,East,100,8.7,8.7,32,0.00,,CLR,0.00,VWS V14.01,2013-04-03 16:34:00,
2013-04-03 11:36:00,49.5,20.9,30.40,SE,126,5.4,5.8,32,0.00,,CLR,0.00,VWS V14.01,2013-04-03 16:36:00,
2013-04-03 11:37:00,49.3,20.7,30.40,SE,136,0.0,3.6,32,0.00,,CLR,0.00,VWS V14.01,2013-04-03 16:37:00,
2013-04-03 11:40:00,49.5,20.9,30.40,ENE,75,6.7,6.7,32,0.00,,CLR,0.00,VWS V14.01,2013-04-03 16:40:00,
2013-04-03 11:41:00,49.6,21.0,30.40,ESE,113,10.5,10.5,32,0.00,,CLR,0.00,VWS V14.01,2013-04-03 16:41:00,
2013-04-03 11:45:00,50.0,21.3,30.40,East,79,7.6,7.6,32,0.00,,CLR,0.00,VWS V14.01,2013-04-03 16:45:00,
2013-04-03 11:46:00,50.0,21.3,30.40,SE,145,5.8,5.8,32,0.00,,CLR,0.00,VWS V14.01,2013-04-03 16:46:00,
2013-04-03 11:47:00,50.0,21.3,30.40,East,94,4.0,4.0,32,0.00,,CLR,0.00,VWS V14.01,2013-04-03 16:47:00,
2013-04-03 11:50:00,50.4,21.6,30.40,ENE,76,8.3,10.5,32,0.00,,CLR,0.00,VWS V14.01,2013-04-03 16:50:00,
2013-04-03 11:52:00,50.4,21.6,30.40,ENE,70,5.8,9.6,32,0.00,,CLR,0.00,VWS V14.01,2013-04-03 16:52:00,
2013-04-03 11:56:00,50.5,21.8,30.37,NNE,17,4.5,8.1,32,0.00,,CLR,0.00,VWS V14.01,2013-04-03 16:56:00,
2013-04-03 11:57:00,50.4,21.6,30.37,ENE,71,5.4,5.4,32,0.00,,CLR,0.00,VWS V14.01,2013-04-03 16:57:00,
2013-04-03 11:59:00,50.5,21.8,30.37,East,97,0.0,3.6,32,0.00,,CLR,0.00,VWS V14.01,2013-04-03 16:59:00,
2013-04-03 12:01:00,50.7,22.0,30.37,NE,44,5.4,7.6,32,0.00,,CLR,0.00,VWS V14.01,2013-04-03 17:01:00,
2013-04-03 12:02:00,50.9,22.1,30.37,East,83,6.3,8.3,32,0.00,,CLR,0.00,VWS V14.01,2013-04-03 17:02:00,
2013-04-03 12:03:00,51.1,22.3,30.37,East,94,4.0,4.0,32,0.00,,CLR,0.00,VWS V14.01,2013-04-03 17:03:00,
2013-04-03 12:04:00,51.3,22.4,30.37,East,85,4.5,4.9,32,0.00,,CLR,0.00,VWS V14.01,2013-04-03 17:04:00,
2013-04-03 12:07:00,51.6,22.7,30.37,East,88,3.6,4.9,32,0.00,,CLR,0.00,VWS V14.01,2013-04-03 17:07:00,
2013-04-03 12:08:00,51.6,22.7,30.37,SE,130,3.1,3.6,32,0.00,,CLR,0.00,VWS V14.01,2013-04-03 17:08:00,
2013-04-03 12:09:00,51.6,22.7,30.37,ENE,70,5.4,6.3,32,0.00,,CLR,0.00,VWS V14.01,2013-04-03 17:09:00,
2013-04-03 12:12:00,51.4,22.6,30.37,SE,139,6.3,9.6,32,0.00,,CLR,0.00,VWS V14.01,2013-04-03 17:12:00,
2013-04-03 12:14:00,51.3,22.4,30.37,ESE,112,6.3,6.3,32,0.00,,CLR,0.00,VWS V14.01,2013-04-03 17:14:00,
2013-04-03 12:15:00,51.1,22.3,30.37,SW,224,6.3,6.3,32,0.00,,CLR,0.00,VWS V14.01,2013-04-03 17:15:00,
2013-04-03 12:17:00,50.9,22.1,30.37,SE,145,3.6,5.4,32,0.00,,CLR,0.00,VWS V14.01,2013-04-03 17:17:00,
2013-04-03 12:20:00,50.7,22.0,30.37,ESE,123,3.6,4.0,32,0.00,,CLR,0.00,VWS V14.01,2013-04-03 17:20:00,
2013-04-03 12:24:00,51.1,22.3,30.37,ESE,121,4.0,7.2,32,0.00,,CLR,0.00,VWS V14.01,2013-04-03 17:24:00,
2013-04-03 12:25:00,51.1,22.3,30.37,East,86,3.6,7.2,32,0.00,,CLR,0.00,VWS V14.01,2013-04-03 17:25:00,
2013-04-03 12:26:00,51.3,22.4,30.37,ENE,71,5.4,5.4,32,0.00,,CLR,0.00,VWS V14.01,2013-04-03 17:26:00,
2013-04-03 12:29:00,51.6,22.7,30.37,SE,124,4.0,5.8,32,0.00,,CLR,0.00,VWS V14.01,2013-04-03 17:29:00,
2013-04-03 12:30:00,51.6,22.7,30.37,SE,125,6.3,6.3,32,0.00,,CLR,0.00,VWS V14.01,2013-04-03 17:30:00,
2013-04-03 12:31:00,51.6,22.7,30.37,SE,132,7.2,7.2,32,0.00,,CLR,0.00,VWS V14.01,2013-04-03 17:31:00,
2013-04-03 12:35:00,51.6,22.7,30.37,NNE,29,3.1,3.1,32,0.00,,CLR,0.00,VWS V14.01,2013-04-03 17:35:00,
2013-04-03 12:36:00,51.6,22.7,30.37,NE,43,4.0,4.0,32,0.00,,CLR,0.00,VWS V14.01,2013-04-03 17:36:00,
2013-04-03 12:38:00,51.8,22.9,30.37,East,83,5.4,5.4,32,0.00,,CLR,0.00,VWS V14.01,2013-04-03 17:38:00,
2013-04-03 12:40:00,51.8,22.9,30.37,NE,45,3.1,3.6,32,0.00,,CLR,0.00,VWS V14.01,2013-04-03 17:40:00,
2013-04-03 12:42:00,51.8,22.9,30.37,ESE,116,5.4,5.8,32,0.00,,CLR,0.00,VWS V14.01,2013-04-03 17:42:00,
2013-04-03 12:43:00,52.0,23.1,30.37,SE,129,4.9,5.4,32,0.00,,CLR,0.00,VWS V14.01,2013-04-03 17:43:00,
2013-04-03 12:45:00,52.3,23.4,30.37,ENE,71,5.8,5.8,32,0.00,,CLR,0.00,VWS V14.01,2013-04-03 17:45:00,
2013-04-03 12:46:00,52.3,23.4,30.37,East,100,6.3,8.3,32,0.00,,CLR,0.00,VWS V14.01,2013-04-03 17:46:00,
2013-04-03 12:47:00,52.5,23.5,30.37,ESE,123,4.0,6.3,32,0.00,,CLR,0.00,VWS V14.01,2013-04-03 17:47:00,
2013-04-03 12:48:00,52.5,23.5,30.37,ESE,118,5.8,5.8,32,0.00,,CLR,0.00,VWS V14.01,2013-04-03 17:48:00,
2013-04-03 12:51:00,52.3,23.4,30.37,East,79,4.0,5.8,32,0.00,,CLR,0.00,VWS V14.01,2013-04-03 17:51:00,
2013-04-03 12:52:00,52.3,23.4,30.37,East,80,0.0,0.0,32,0.00,,CLR,0.00,VWS V14.01,2013-04-03 17:52:00,
2013-04-03 12:53:00,52.3,23.4,30.37,East,89,2.2,2.2,32,0.00,,CLR,0.00,VWS V14.01,2013-04-03 17:53:00,
2013-04-03 12:56:00,52.7,23.7,30.35,ENE,67,4.5,4.9,32,0.00,,CLR,0.00,VWS V14.01,2013-04-03 17:56:00,
2013-04-03 12:57:00,52.9,23.9,30.35,SSE,155,3.1,3.1,32,0.00,,CLR,0.00,VWS V14.01,2013-04-03 17:57:00,
2013-04-03 12:58:00,52.9,23.9,30.35,SE,144,6.3,7.6,32,0.00,,CLR,0.00,VWS V14.01,2013-04-03 17:58:00,
2013-04-03 13:01:00,53.1,24.0,30.35,NNE,33,4.9,6.3,32,0.00,,CLR,0.00,VWS V14.01,2013-04-03 18:01:00,
2013-04-03 13:02:00,53.2,24.2,30.35,ENE,78,7.6,8.1,32,0.00,,CLR,0.00,VWS V14.01,2013-04-03 18:02:00,
2013-04-03 13:03:00,53.2,24.2,30.35,ENE,78,6.3,8.1,32,0.00,,CLR,0.00,VWS V14.01,2013-04-03 18:03:00,
2013-04-03 13:04:00,53.4,24.3,30.35,East,82,2.2,3.6,32,0.00,,CLR,0.00,VWS V14.01,2013-04-03 18:04:00,
2013-04-03 13:06:00,53.6,22.9,30.35,SE,130,3.6,4.0,30,0.00,,CLR,0.00,VWS V14.01,2013-04-03 18:06:00,
2013-04-03 13:08:00,53.4,24.3,30.35,East,86,7.6,8.1,32,0.00,,CLR,0.00,VWS V14.01,2013-04-03 18:08:00,
2013-04-03 13:09:00,53.4,24.3,30.35,ENE,64,5.8,7.6,32,0.00,,CLR,0.00,VWS V14.01,2013-04-03 18:09:00,
2013-04-03 13:10:00,53.6,22.9,30.35,ENE,70,8.3,8.3,30,0.00,,CLR,0.00,VWS V14.01,2013-04-03 18:10:00,
2013-04-03 13:11:00,53.4,24.3,30.35,ESE,120,4.9,5.4,32,0.00,,CLR,0.00,VWS V14.01,2013-04-03 18:11:00,
2013-04-03 13:14:00,53.4,24.3,30.35,ESE,112,3.1,3.6,32,0.00,,CLR,0.00,VWS V14.01,2013-04-03 18:14:00,
2013-04-03 13:16:00,53.2,24.2,30.35,SE,134,3.1,4.0,32,0.00,,CLR,0.00,VWS V14.01,2013-04-03 18:16:00,
2013-04-03 13:20:00,53.2,24.2,30.35,NE,55,3.6,5.8,32,0.00,,CLR,0.00,VWS V14.01,2013-04-03 18:20:00,
2013-04-03 13:21:00,53.1,24.0,30.35,SSE,162,8.1,8.1,32,0.00,,CLR,0.00,VWS V14.01,2013-04-03 18:21:00,
2013-04-03 13:22:00,53.2,24.2,30.35,ENE,71,3.6,6.3,32,0.00,,CLR,0.00,VWS V14.01,2013-04-03 18:22:00,
2013-04-03 13:23:00,53.1,24.0,30.35,ENE,73,4.9,8.7,32,0.00,,CLR,0.00,VWS V14.01,2013-04-03 18:23:00,
2013-04-03 13:25:00,53.2,24.2,30.35,East,85,5.8,5.8,32,0.00,,CLR,0.00,VWS V14.01,2013-04-03 18:25:00,
2013-04-03 13:27:00,53.1,24.0,30.35,NE,55,3.1,5.8,32,0.00,,CLR,0.00,VWS V14.01,2013-04-03 18:27:00,
2013-04-03 13:28:00,53.1,24.0,30.35,ENE,60,4.0,5.8,32,0.00,,CLR,0.00,VWS V14.01,2013-04-03 18:28:00,
2013-04-03 13:30:00,53.2,24.2,30.35,ENE,78,6.7,6.7,32,0.00,,CLR,0.00,VWS V14.01,2013-04-03 18:30:00,
2013-04-03 13:33:00,53.4,24.3,30.35,East,81,3.1,3.1,32,0.00,,CLR,0.00,VWS V14.01,2013-04-03 18:33:00,
2013-04-03 13:35:00,53.8,23.1,30.35,ENE,75,11.0,11.0,30,0.00,,CLR,0.00,VWS V14.01,2013-04-03 18:35:00,
2013-04-03 13:37:00,54.1,23.4,30.35,ENE,65,4.0,5.8,30,0.00,,CLR,0.00,VWS V14.01,2013-04-03 18:37:00,
2013-04-03 13:38:00,54.1,23.4,30.35,East,79,3.6,8.7,30,0.00,,CLR,0.00,VWS V14.01,2013-04-03 18:38:00,
2013-04-03 13:40:00,54.3,23.6,30.35,NNE,23,5.8,5.8,30,0.00,,CLR,0.00,VWS V14.01,2013-04-03 18:40:00,
2013-04-03 13:42:00,54.1,23.4,30.35,SSE,148,10.1,10.5,30,0.00,,CLR,0.00,VWS V14.01,2013-04-03 18:42:00,
2013-04-03 13:43:00,53.8,23.1,30.35,SE,139,8.3,8.3,30,0.00,,CLR,0.00,VWS V14.01,2013-04-03 18:43:00,
2013-04-03 13:44:00,53.8,23.1,30.35,SSE,163,7.2,8.3,30,0.00,,CLR,0.00,VWS V14.01,2013-04-03 18:44:00,
2013-04-03 13:45:00,53.6,22.9,30.35,SSE,158,2.7,8.3,30,0.00,,CLR,0.00,VWS V14.01,2013-04-03 18:45:00,
2013-04-03 13:48:00,53.6,22.9,30.35,ENE,65,4.0,4.0,30,0.00,,CLR,0.00,VWS V14.01,2013-04-03 18:48:00,
2013-04-03 13:49:00,53.8,23.1,30.35,East,84,7.6,7.6,30,0.00,,CLR,0.00,VWS V14.01,2013-04-03 18:49:00,
2013-04-03 13:52:00,54.3,23.6,30.35,ENE,76,5.4,6.3,30,0.00,,CLR,0.00,VWS V14.01,2013-04-03 18:52:00,
2013-04-03 13:53:00,54.5,23.7,30.35,ENE,65,6.3,6.3,30,0.00,,CLR,0.00,VWS V14.01,2013-04-03 18:53:00,
2013-04-03 13:57:00,54.7,23.9,30.35,NE,48,5.8,5.8,30,0.00,,CLR,0.00,VWS V14.01,2013-04-03 18:57:00,
2013-04-03 13:58:00,54.5,23.7,30.35,NE,50,5.8,8.1,30,0.00,,CLR,0.00,VWS V14.01,2013-04-03 18:58:00,
2013-04-03 14:03:00,54.9,24.0,30.35,SE,126,5.4,5.4,30,0.00,,CLR,0.00,VWS V14.01,2013-04-03 19:03:00,
2013-04-03 14:04:00,55.0,24.2,30.35,ENE,74,3.6,5.4,30,0.00,,CLR,0.00,VWS V14.01,2013-04-03 19:04:00,
2013-04-03 14:08:00,55.0,24.2,30.35,SE,144,0.0,4.0,30,0.00,,CLR,0.00,VWS V14.01,2013-04-03 19:08:00,
2013-04-03 14:09:00,54.9,24.0,30.32,ESE,115,8.1,8.1,30,0.00,,CLR,0.00,VWS V14.01,2013-04-03 19:09:00,
2013-04-03 14:10:00,54.9,24.0,30.32,SE,127,5.8,8.1,30,0.00,,CLR,0.00,VWS V14.01,2013-04-03 19:10:00,
2013-04-03 14:13:00,55.0,24.2,30.32,SE,141,5.8,8.1,30,0.00,,CLR,0.00,VWS V14.01,2013-04-03 19:13:00,
2013-04-03 14:14:00,55.0,24.2,30.32,SSE,162,5.8,8.1,30,0.00,,CLR,0.00,VWS V14.01,2013-04-03 19:14:00,
2013-04-03 14:15:00,55.0,24.2,30.32,SE,129,0.0,5.8,30,0.00,,CLR,0.00,VWS V14.01,2013-04-03 19:15:00,
2013-04-03 14:20:00,55.4,24.5,30.32,ENE,76,9.2,11.0,30,0.00,,CLR,0.00,VWS V14.01,2013-04-03 19:20:00,
2013-04-03 14:21:00,55.4,24.5,30.32,NE,41,3.6,3.6,30,0.00,,CLR,0.00,VWS V14.01,2013-04-03 19:21:00,
2013-04-03 14:25:00,55.6,24.7,30.32,ENE,67,0.0,3.1,30,0.00,,CLR,0.00,VWS V14.01,2013-04-03 19:25:00,
2013-04-03 14:26:00,55.6,24.7,30.32,ENE,67,0.0,3.1,30,0.00,,CLR,0.00,VWS V14.01,2013-04-03 19:26:00,
2013-04-03 14:27:00,55.8,24.8,30.32,East,83,6.3,6.3,30,0.00,,CLR,0.00,VWS V14.01,2013-04-03 19:27:00,
2013-04-03 14:31:00,56.1,25.1,30.32,ENE,67,7.2,12.3,30,0.00,,CLR,0.00,VWS V14.01,2013-04-03 19:31:00,
2013-04-03 14:32:00,55.9,25.0,30.32,ENE,74,6.3,8.1,30,0.00,,CLR,0.00,VWS V14.01,2013-04-03 19:32:00,
2013-04-03 14:36:00,55.9,25.0,30.32,ENE,77,11.0,11.0,30,0.00,,CLR,0.00,VWS V14.01,2013-04-03 19:36:00,
2013-04-03 14:37:00,55.9,25.0,30.32,East,82,8.1,11.0,30,0.00,,CLR,0.00,VWS V14.01,2013-04-03 19:37:00,
2013-04-03 14:39:00,56.1,25.1,30.32,East,90,7.6,8.1,30,0.00,,CLR,0.00,VWS V14.01,2013-04-03 19:39:00,
2013-04-03 14:41:00,56.3,25.3,30.32,ENE,57,2.7,7.2,30,0.00,,CLR,0.00,VWS V14.01,2013-04-03 19:41:00,
2013-04-03 14:42:00,56.3,25.3,30.32,ENE,57,3.1,7.2,30,0.00,,CLR,0.00,VWS V14.01,2013-04-03 19:42:00,
2013-04-03 14:43:00,56.3,25.3,30.32,ENE,75,2.7,8.1,30,0.00,,CLR,0.00,VWS V14.01,2013-04-03 19:43:00,
2013-04-03 14:45:00,56.7,25.6,30.32,ENE,75,8.7,8.7,30,0.00,,CLR,0.00,VWS V14.01,2013-04-03 19:45:00,
2013-04-03 14:47:00,56.7,25.6,30.32,SE,136,5.8,5.8,30,0.00,,CLR,0.00,VWS V14.01,2013-04-03 19:47:00,
2013-04-03 14:48:00,56.8,25.8,30.32,ENE,74,5.8,10.5,30,0.00,,CLR,0.00,VWS V14.01,2013-04-03 19:48:00,
2013-04-03 14:50:00,56.8,25.8,30.32,SE,126,8.1,8.3,30,0.00,,CLR,0.00,VWS V14.01,2013-04-03 19:50:00,
2013-04-03 14:52:00,56.8,25.8,30.32,East,85,7.6,7.6,30,0.00,,CLR,0.00,VWS V14.01,2013-04-03 19:52:00,
2013-04-03 14:53:00,57.0,25.9,30.32,ESE,118,0.0,7.6,30,0.00,,CLR,0.00,VWS V14.01,2013-04-03 19:53:00,
2013-04-03 14:55:00,57.2,24.4,30.32,SE,133,5.4,5.4,28,0.00,,CLR,0.00,VWS V14.01,2013-04-03 19:55:00,
2013-04-03 14:57:00,57.2,24.4,30.32,SSE,148,4.9,4.9,28,0.00,,CLR,0.00,VWS V14.01,2013-04-03 19:57:00,
2013-04-03 14:58:00,57.2,24.4,30.32,SE,126,5.4,7.6,28,0.00,,CLR,0.00,VWS V14.01,2013-04-03 19:58:00,
2013-04-03 14:59:00,57.2,24.4,30.32,NE,46,3.6,5.8,28,0.00,,CLR,0.00,VWS V14.01,2013-04-03 19:59:00,
2013-04-03 15:01:00,57.2,24.4,30.32,ENE,72,11.4,11.4,28,0.00,,CLR,0.00,VWS V14.01,2013-04-03 20:01:00,
2013-04-03 15:03:00,57.2,24.4,30.32,ENE,75,5.4,6.3,28,0.00,,CLR,0.00,VWS V14.01,2013-04-03 20:03:00,
2013-04-03 15:04:00,57.2,24.4,30.32,ENE,77,5.4,5.4,28,0.00,,CLR,0.00,VWS V14.01,2013-04-03 20:04:00,
2013-04-03 15:05:00,57.2,24.4,30.32,NE,55,2.7,5.4,28,0.00,,CLR,0.00,VWS V14.01,2013-04-03 20:05:00,
2013-04-03 15:07:00,57.0,25.9,30.32,SE,136,7.6,7.6,30,0.00,,CLR,0.00,VWS V14.01,2013-04-03 20:07:00,
2013-04-03 15:09:00,57.0,25.9,30.29,South,187,2.7,5.4,30,0.00,,CLR,0.00,VWS V14.01,2013-04-03 20:09:00,
2013-04-03 15:10:00,57.0,25.9,30.29,SE,138,3.6,5.4,30,0.00,,CLR,0.00,VWS V14.01,2013-04-03 20:10:00,
2013-04-03 15:12:00,56.8,25.8,30.29,East,87,3.1,8.1,30,0.00,,CLR,0.00,VWS V14.01,2013-04-03 20:12:00,
2013-04-03 15:13:00,56.8,25.8,30.29,ENE,76,4.9,8.1,30,0.00,,CLR,0.00,VWS V14.01,2013-04-03 20:13:00,
2013-04-03 15:15:00,56.8,25.8,30.29,East,87,8.1,12.8,30,0.00,,CLR,0.00,VWS V14.01,2013-04-03 20:15:00,
2013-04-03 15:17:00,57.0,25.9,30.29,ENE,66,6.3,7.2,30,0.00,,CLR,0.00,VWS V14.01,2013-04-03 20:17:00,
2013-04-03 15:18:00,57.2,24.4,30.29,NE,43,5.8,5.8,28,0.00,,CLR,0.00,VWS V14.01,2013-04-03 20:18:00,
2013-04-03 15:20:00,57.6,24.7,30.29,ENE,65,7.2,8.1,28,0.00,,CLR,0.00,VWS V14.01,2013-04-03 20:20:00,
2013-04-03 15:21:00,57.7,24.9,30.29,NE,49,3.6,7.2,28,0.00,,CLR,0.00,VWS V14.01,2013-04-03 20:21:00,
2013-04-03 15:23:00,58.1,25.2,30.29,East,100,3.1,6.3,28,0.00,,CLR,0.00,VWS V14.01,2013-04-03 20:23:00,
2013-04-03 15:25:00,58.6,25.6,30.32,ENE,63,5.4,6.3,28,0.00,,CLR,0.00,VWS V14.01,2013-04-03 20:25:00,
2013-04-03 15:26:00,58.6,25.6,30.32,East,82,3.6,6.3,28,0.00,,CLR,0.00,VWS V14.01,2013-04-03 20:26:00,
2013-04-03 15:28:00,58.6,25.6,30.32,East,83,3.6,3.6,28,0.00,,CLR,0.00,VWS V14.01,2013-04-03 20:28:00,
2013-04-03 15:31:00,58.8,25.8,30.32,ESE,111,4.5,6.3,28,0.00,,CLR,0.00,VWS V14.01,2013-04-03 20:31:00,
2013-04-03 15:32:00,58.8,25.8,30.32,ESE,117,4.0,4.9,28,0.00,,CLR,0.00,VWS V14.01,2013-04-03 20:32:00,
2013-04-03 15:34:00,58.3,25.3,30.32,SE,134,3.6,7.6,28,0.00,,CLR,0.00,VWS V14.01,2013-04-03 20:34:00,
2013-04-03 15:35:00,58.3,25.3,30.32,ESE,122,8.3,8.3,28,0.00,,CLR,0.00,VWS V14.01,2013-04-03 20:35:00,
2013-04-03 15:36:00,58.5,25.5,30.32,SE,129,5.4,8.3,28,0.00,,CLR,0.00,VWS V14.01,2013-04-03 20:36:00,
2013-04-03 15:37:00,58.3,25.3,30.32,SE,138,0.0,3.1,28,0.00,,CLR,0.00,VWS V14.01,2013-04-03 20:37:00,
2013-04-03 15:40:00,58.5,25.5,30.32,SE,143,2.7,2.7,28,0.00,,CLR,0.00,VWS V14.01,2013-04-03 20:40:00,
2013-04-03 15:42:00,58.5,25.5,30.32,SE,139,0.0,6.3,28,0.00,,CLR,0.00,VWS V14.01,2013-04-03 20:42:00,
2013-04-03 15:43:00,58.5,25.5,30.32,SSE,168,5.8,5.8,28,0.00,,CLR,0.00,VWS V14.01,2013-04-03 20:43:00,
2013-04-03 15:46:00,57.9,25.0,30.32,SSW,192,3.6,4.9,28,0.00,,CLR,0.00,VWS V14.01,2013-04-03 20:46:00,
2013-04-03 15:47:00,57.7,24.9,30.32,SE,131,3.1,4.9,28,0.00,,CLR,0.00,VWS V14.01,2013-04-03 20:47:00,
2013-04-03 15:48:00,57.6,24.7,30.32,SE,131,2.7,2.7,28,0.00,,CLR,0.00,VWS V14.01,2013-04-03 20:48:00,
2013-04-03 15:51:00,57.6,24.7,30.32,ENE,64,3.6,5.4,28,0.00,,CLR,0.00,VWS V14.01,2013-04-03 20:51:00,
2013-04-03 15:52:00,57.6,24.7,30.32,ENE,70,4.0,4.9,28,0.00,,CLR,0.00,VWS V14.01,2013-04-03 20:52:00,
2013-04-03 15:53:00,57.6,24.7,30.32,East,82,6.3,6.3,28,0.00,,CLR,0.00,VWS V14.01,2013-04-03 20:53:00,
2013-04-03 15:57:00,58.1,25.2,30.29,East,88,2.7,2.7,28,0.00,,CLR,0.00,VWS V14.01,2013-04-03 20:57:00,
2013-04-03 15:58:00,58.1,25.2,30.29,East,90,0.0,2.7,28,0.00,,CLR,0.00,VWS V14.01,2013-04-03 20:58:00,
2013-04-03 15:59:00,58.1,25.2,30.29,East,84,5.8,5.8,28,0.00,,CLR,0.00,VWS V14.01,2013-04-03 20:59:00,
2013-04-03 16:03:00,58.3,25.3,30.29,SE,142,2.7,5.8,28,0.00,,CLR,0.00,VWS V14.01,2013-04-03 21:03:00,
2013-04-03 16:04:00,58.3,25.3,30.29,ESE,119,2.7,3.1,28,0.00,,CLR,0.00,VWS V14.01,2013-04-03 21:04:00,
2013-04-03 16:08:00,57.6,24.7,30.29,SE,128,5.8,8.1,28,0.00,,CLR,0.00,VWS V14.01,2013-04-03 21:08:00,
2013-04-03 16:09:00,57.6,24.7,30.29,SE,141,5.8,8.1,28,0.00,,CLR,0.00,VWS V14.01,2013-04-03 21:09:00,
2013-04-03 16:10:00,57.2,24.4,30.29,ESE,120,4.0,6.3,28,0.00,,CLR,0.00,VWS V14.01,2013-04-03 21:10:00,
2013-04-03 16:13:00,56.1,25.1,30.29,South,182,4.0,8.1,30,0.00,,CLR,0.00,VWS V14.01,2013-04-03 21:13:00,
2013-04-03 16:14:00,55.9,25.0,30.29,SE,144,7.6,8.3,30,0.00,,CLR,0.00,VWS V14.01,2013-04-03 21:14:00,
2013-04-03 16:15:00,55.8,24.8,30.29,SE,134,5.4,5.4,30,0.00,,CLR,0.00,VWS V14.01,2013-04-03 21:15:00,
2013-04-03 16:16:00,55.4,24.5,30.29,SE,145,5.8,5.8,30,0.00,,CLR,0.00,VWS V14.01,2013-04-03 21:16:00,
2013-04-03 16:19:00,54.9,24.0,30.29,SE,128,7.6,8.1,30,0.00,,CLR,0.00,VWS V14.01,2013-04-03 21:19:00,
2013-04-03 16:20:00,54.7,23.9,30.29,SE,129,6.3,6.3,30,0.00,,CLR,0.00,VWS V14.01,2013-04-03 21:20:00,
2013-04-03 16:21:00,54.5,23.7,30.29,SE,138,8.1,8.1,30,0.00,,CLR,0.00,VWS V14.01,2013-04-03 21:21:00,
2013-04-03 16:24:00,53.8,23.1,30.29,SE,126,5.8,6.3,30,0.00,,CLR,0.00,VWS V14.01,2013-04-03 21:24:00,
2013-04-03 16:25:00,53.6,22.9,30.29,SSE,152,7.6,7.6,30,0.00,,CLR,0.00,VWS V14.01,2013-04-03 21:25:00,
2013-04-03 16:26:00,53.4,24.3,30.29,SE,139,6.3,7.6,32,0.00,,CLR,0.00,VWS V14.01,2013-04-03 21:26:00,
2013-04-03 16:27:00,53.4,24.3,30.29,SE,139,4.0,4.0,32,0.00,,CLR,0.00,VWS V14.01,2013-04-03 21:27:00,
2013-04-03 16:30:00,53.2,24.2,30.29,ESE,121,0.0,0.0,32,0.00,,CLR,0.00,VWS V14.01,2013-04-03 21:30:00,
2013-04-03 16:32:00,53.2,24.2,30.29,ESE,121,0.0,0.0,32,0.00,,CLR,0.00,VWS V14.01,2013-04-03 21:32:00,
2013-04-03 16:35:00,53.2,24.2,30.29,ENE,77,5.4,8.7,32,0.00,,CLR,0.00,VWS V14.01,2013-04-03 21:35:00,
2013-04-03 16:37:00,53.1,24.0,30.29,East,88,5.4,5.4,32,0.00,,CLR,0.00,VWS V14.01,2013-04-03 21:37:00,
2013-04-03 16:40:00,53.4,24.3,30.29,East,81,3.1,3.1,32,0.00,,CLR,0.00,VWS V14.01,2013-04-03 21:40:00,
2013-04-03 16:42:00,53.4,24.3,30.29,SE,137,5.8,5.8,32,0.00,,CLR,0.00,VWS V14.01,2013-04-03 21:42:00,
2013-04-03 16:44:00,53.4,24.3,30.29,SE,142,5.4,5.8,32,0.00,,CLR,0.00,VWS V14.01,2013-04-03 21:44:00,
2013-04-03 16:46:00,53.4,24.3,30.29,ESE,117,3.6,3.6,32,0.00,,CLR,0.00,VWS V14.01,2013-04-03 21:46:00,
2013-04-03 16:47:00,53.6,22.9,30.29,SE,125,5.4,5.8,30,0.00,,CLR,0.00,VWS V14.01,2013-04-03 21:47:00,
2013-04-03 16:48:00,53.6,22.9,30.29,SE,124,0.0,5.8,30,0.00,,CLR,0.00,VWS V14.01,2013-04-03 21:48:00,
2013-04-03 16:49:00,53.6,22.9,30.29,SE,128,3.1,3.1,30,0.00,,CLR,0.00,VWS V14.01,2013-04-03 21:49:00,
2013-04-03 16:52:00,53.8,23.1,30.29,ESE,123,2.2,2.7,30,0.00,,CLR,0.00,VWS V14.01,2013-04-03 21:52:00,
2013-04-03 16:53:00,53.8,23.1,30.29,SE,137,0.0,0.0,30,0.00,,CLR,0.00,VWS V14.01,2013-04-03 21:53:00,
2013-04-03 16:55:00,53.8,23.1,30.29,ESE,121,3.6,8.3,30,0.00,,CLR,0.00,VWS V14.01,2013-04-03 21:55:00,
2013-04-03 16:57:00,53.8,23.1,30.29,SE,138,3.6,3.6,30,0.00,,CLR,0.00,VWS V14.01,2013-04-03 21:57:00,
2013-04-03 16:59:00,53.8,23.1,30.29,SSE,161,8.1,8.1,30,0.00,,CLR,0.00,VWS V14.01,2013-04-03 21:59:00,
2013-04-03 17:00:00,53.8,23.1,30.29,ESE,112,3.6,5.8,30,0.00,,CLR,0.00,VWS V14.01,2013-04-03 22:00:00,
2013-04-03 17:02:00,54.0,23.2,30.29,ESE,113,3.1,5.8,30,0.00,,CLR,0.00,VWS V14.01,2013-04-03 22:02:00,
2013-04-03 17:03:00,54.0,23.2,30.29,East,82,5.4,5.8,30,0.00,,CLR,0.00,VWS V14.01,2013-04-03 22:03:00,
2013-04-03 17:04:00,54.1,23.4,30.29,ESE,122,4.5,4.5,30,0.00,,CLR,0.00,VWS V14.01,2013-04-03 22:04:00,
2013-04-03 17:07:00,54.3,23.6,30.29,ESE,102,3.1,3.1,30,0.00,,CLR,0.00,VWS V14.01,2013-04-03 22:07:00,
2013-04-03 17:08:00,54.3,23.6,30.29,ESE,113,0.0,3.1,30,0.00,,CLR,0.00,VWS V14.01,2013-04-03 22:08:00,
2013-04-03 17:10:00,54.5,23.7,30.29,SE,134,0.0,4.0,30,0.00,,CLR,0.00,VWS V14.01,2013-04-03 22:10:00,
2013-04-03 17:12:00,54.3,23.6,30.29,ESE,109,5.8,7.6,30,0.00,,CLR,0.00,VWS V14.01,2013-04-03 22:12:00,
2013-04-03 17:14:00,54.3,23.6,30.29,East,83,2.7,5.4,30,0.00,,CLR,0.00,VWS V14.01,2013-04-03 22:14:00,
2013-04-03 17:15:00,54.3,23.6,30.29,East,95,0.0,2.7,30,0.00,,CLR,0.00,VWS V14.01,2013-04-03 22:15:00,
2013-04-03 17:17:00,54.3,23.6,30.29,SSE,153,5.4,5.8,30,0.00,,CLR,0.00,VWS V14.01,2013-04-03 22:17:00,
2013-04-03 17:19:00,54.1,23.4,30.29,ESE,107,6.3,6.7,30,0.00,,CLR,0.00,VWS V14.01,2013-04-03 22:19:00,
2013-04-03 17:21:00,54.0,23.2,30.29,ESE,110,3.6,4.0,30,0.00,,CLR,0.00,VWS V14.01,2013-04-03 22:21:00,
2013-04-03 17:22:00,53.8,23.1,30.29,SSE,163,7.6,7.6,30,0.00,,CLR,0.00,VWS V14.01,2013-04-03 22:22:00,
2013-04-03 17:24:00,53.6,22.9,30.29,SE,136,3.6,4.5,30,0.00,,CLR,0.00,VWS V14.01,2013-04-03 22:24:00,
2013-04-03 17:26:00,53.4,24.3,30.29,ENE,62,6.3,8.7,32,0.00,,CLR,0.00,VWS V14.01,2013-04-03 22:26:00,
2013-04-03 17:27:00,53.4,24.3,30.29,ENE,70,6.3,8.7,32,0.00,,CLR,0.00,VWS V14.01,2013-04-03 22:27:00,
2013-04-03 17:28:00,53.4,24.3,30.29,ENE,64,5.4,6.3,32,0.00,,CLR,0.00,VWS V14.01,2013-04-03 22:28:00,
2013-04-03 17:30:00,53.2,24.2,30.29,ENE,65,3.1,3.1,32,0.00,,CLR,0.00,VWS V14.01,2013-04-03 22:30:00,
2013-04-03 17:32:00,53.1,24.0,30.29,ENE,67,5.4,6.3,32,0.00,,CLR,0.00,VWS V14.01,2013-04-03 22:32:00,
2013-04-03 17:33:00,52.9,23.9,30.29,SSE,151,4.9,6.3,32,0.00,,CLR,0.00,VWS V14.01,2013-04-03 22:33:00,
2013-04-03 17:35:00,52.7,23.7,30.29,SSE,147,0.0,5.8,32,0.00,,CLR,0.00,VWS V14.01,2013-04-03 22:35:00,
2013-04-03 17:37:00,52.5,23.5,30.29,SSE,147,0.0,0.0,32,0.00,,CLR,0.00,VWS V14.01,2013-04-03 22:37:00,
2013-04-03 17:39:00,52.5,23.5,30.29,SSE,147,0.0,0.0,32,0.00,,CLR,0.00,VWS V14.01,2013-04-03 22:39:00,
2013-04-03 17:40:00,52.5,23.5,30.29,SSE,147,3.1,3.1,32,0.00,,CLR,0.00,VWS V14.01,2013-04-03 22:40:00,
2013-04-03 17:42:00,52.5,23.5,30.29,SE,131,2.7,2.7,32,0.00,,CLR,0.00,VWS V14.01,2013-04-03 22:42:00,
2013-04-03 17:44:00,52.5,23.5,30.29,ENE,77,0.0,4.9,32,0.00,,CLR,0.00,VWS V14.01,2013-04-03 22:44:00,
2013-04-03 17:45:00,52.7,23.7,30.29,ENE,77,0.0,0.0,32,0.00,,CLR,0.00,VWS V14.01,2013-04-03 22:45:00,
2013-04-03 17:46:00,52.9,23.9,30.29,ENE,77,0.0,3.1,32,0.00,,CLR,0.00,VWS V14.01,2013-04-03 22:46:00,
2013-04-03 17:47:00,52.9,23.9,30.29,East,83,0.0,3.1,32,0.00,,CLR,0.00,VWS V14.01,2013-04-03 22:47:00,
2013-04-03 17:49:00,52.9,23.9,30.29,ENE,71,3.6,5.4,32,0.00,,CLR,0.00,VWS V14.01,2013-04-03 22:49:00,
2013-04-03 17:50:00,52.9,23.9,30.29,SE,124,4.0,4.0,32,0.00,,CLR,0.00,VWS V14.01,2013-04-03 22:50:00,
2013-04-03 17:51:00,52.9,23.9,30.29,SE,136,0.0,3.6,32,0.00,,CLR,0.00,VWS V14.01,2013-04-03 22:51:00,
2013-04-03 17:54:00,52.7,23.7,30.29,SE,144,2.7,3.1,32,0.00,,CLR,0.00,VWS V14.01,2013-04-03 22:54:00,
2013-04-03 17:56:00,52.5,23.5,30.29,SE,144,0.0,2.7,32,0.00,,CLR,0.00,VWS V14.01,2013-04-03 22:56:00,
2013-04-03 17:57:00,52.5,23.5,30.29,SE,144,0.0,0.0,32,0.00,,CLR,0.00,VWS V14.01,2013-04-03 22:57:00,
2013-04-03 17:59:00,52.2,23.2,30.29,ENE,73,4.9,5.4,32,0.00,,CLR,0.00,VWS V14.01,2013-04-03 22:59:00,
2013-04-03 18:02:00,52.2,23.2,30.29,East,84,0.0,0.0,32,0.00,,CLR,0.00,VWS V14.01,2013-04-03 23:02:00,
2013-04-03 18:03:00,52.2,23.2,30.29,East,85,0.0,0.0,32,0.00,,CLR,0.00,VWS V14.01,2013-04-03 23:03:00,
2013-04-03 18:06:00,52.3,23.4,30.29,ENE,72,3.6,6.3,32,0.00,,CLR,0.00,VWS V14.01,2013-04-03 23:06:00,
2013-04-03 18:07:00,52.3,23.4,30.29,East,98,3.6,5.4,32,0.00,,CLR,0.00,VWS V14.01,2013-04-03 23:07:00,
2013-04-03 18:09:00,52.2,23.2,30.29,ENE,72,2.2,5.4,32,0.00,,CLR,0.00,VWS V14.01,2013-04-03 23:09:00,
2013-04-03 18:10:00,52.2,23.2,30.29,East,79,0.0,2.7,32,0.00,,CLR,0.00,VWS V14.01,2013-04-03 23:10:00,
2013-04-03 18:11:00,52.2,23.2,30.29,East,84,3.1,3.1,32,0.00,,CLR,0.00,VWS V14.01,2013-04-03 23:11:00,
2013-04-03 18:13:00,52.2,23.2,30.29,ENE,70,3.6,3.6,32,0.00,,CLR,0.00,VWS V14.01,2013-04-03 23:13:00,
2013-04-03 18:15:00,52.0,23.1,30.29,ENE,76,3.6,3.6,32,0.00,,CLR,0.00,VWS V14.01,2013-04-03 23:15:00,
2013-04-03 18:16:00,52.0,23.1,30.29,East,79,2.2,3.6,32,0.00,,CLR,0.00,VWS V14.01,2013-04-03 23:16:00,
2013-04-03 18:20:00,51.8,22.9,30.29,ENE,78,4.0,4.9,32,0.00,,CLR,0.00,VWS V14.01,2013-04-03 23:20:00,
2013-04-03 18:21:00,51.6,22.7,30.29,ENE,77,2.7,2.7,32,0.00,,CLR,0.00,VWS V14.01,2013-04-03 23:21:00,
2013-04-03 18:22:00,51.6,22.7,30.29,ENE,77,0.0,2.7,32,0.00,,CLR,0.00,VWS V14.01,2013-04-03 23:22:00,
2013-04-03 18:26:00,51.3,22.4,30.29,ESE,105,0.0,0.0,32,0.00,,CLR,0.00,VWS V14.01,2013-04-03 23:26:00,
2013-04-03 18:27:00,51.1,22.3,30.29,ESE,105,0.0,0.0,32,0.00,,CLR,0.00,VWS V14.01,2013-04-03 23:27:00,
2013-04-03 18:32:00,50.5,21.8,30.29,ENE,68,0.0,2.2,32,0.00,,CLR,0.00,VWS V14.01,2013-04-03 23:32:00,
2013-04-03 18:33:00,50.4,21.6,30.29,ENE,68,2.2,2.2,32,0.00,,CLR,0.00,VWS V14.01,2013-04-03 23:33:00,
2013-04-03 18:34:00,50.4,21.6,30.29,ENE,68,0.0,2.2,32,0.00,,CLR,0.00,VWS V14.01,2013-04-03 23:34:00,
2013-04-03 18:37:00,50.0,21.3,30.29,ENE,68,2.7,2.7,32,0.00,,CLR,0.00,VWS V14.01,2013-04-03 23:37:00,
2013-04-03 18:39:00,49.8,21.2,30.29,ENE,74,3.1,5.8,32,0.00,,CLR,0.00,VWS V14.01,2013-04-03 23:39:00,
2013-04-03 18:42:00,49.3,20.7,30.29,East,80,2.7,3.6,32,0.00,,CLR,0.00,VWS V14.01,2013-04-03 23:42:00,
2013-04-03 18:43:00,49.3,20.7,30.29,East,80,3.1,5.4,32,0.00,,CLR,0.00,VWS V14.01,2013-04-03 23:43:00,
2013-04-03 18:44:00,49.1,20.5,30.29,East,80,3.1,3.1,32,0.00,,CLR,0.00,VWS V14.01,2013-04-03 23:44:00,
2013-04-03 18:46:00,48.9,20.4,30.29,East,79,2.7,4.0,32,0.00,,CLR,0.00,VWS V14.01,2013-04-03 23:46:00,
2013-04-03 18:48:00,48.7,20.2,30.29,East,80,3.6,4.0,32,0.00,,CLR,0.00,VWS V14.01,2013-04-03 23:48:00,
2013-04-03 18:50:00,48.6,20.1,30.29,East,80,3.6,4.0,32,0.00,,CLR,0.00,VWS V14.01,2013-04-03 23:50:00,
2013-04-03 18:51:00,48.4,19.9,30.29,East,79,0.0,0.0,32,0.00,,CLR,0.00,VWS V14.01,2013-04-03 23:51:00,
2013-04-03 18:53:00,48.0,21.0,30.29,ENE,75,0.0,2.2,34,0.00,,CLR,0.00,VWS V14.01,2013-04-03 23:53:00,
2013-04-03 18:54:00,48.0,21.0,30.29,ENE,75,4.9,4.9,34,0.00,,CLR,0.00,VWS V14.01,2013-04-03 23:54:00,
2013-04-03 18:55:00,47.8,20.9,30.29,ENE,76,2.7,3.6,34,0.00,,CLR,0.00,VWS V14.01,2013-04-03 23:55:00,
2013-04-03 18:57:00,47.7,20.7,30.29,ENE,76,3.6,3.6,34,0.00,,CLR,0.00,VWS V14.01,2013-04-03 23:57:00,
2013-04-03 18:59:00,47.5,20.5,30.29,ENE,76,2.2,3.1,34,0.00,,CLR,0.00,VWS V14.01,2013-04-03 23:59:00,
2013-04-03 19:01:00,47.3,20.4,30.29,ENE,76,3.1,4.0,34,0.00,,CLR,0.00,VWS V14.01,2013-04-04 00:01:00,
2013-04-03 19:03:00,47.1,20.2,30.29,ENE,77,2.7,3.1,34,0.00,,CLR,0.00,VWS V14.01,2013-04-04 00:03:00,
2013-04-03 19:04:00,46.9,20.0,30.29,ENE,77,3.1,3.6,34,0.00,,CLR,0.00,VWS V14.01,2013-04-04 00:04:00,
2013-04-03 19:06:00,46.9,20.0,30.29,ENE,77,3.1,3.6,34,0.00,,CLR,0.00,VWS V14.01,2013-04-04 00:06:00,
2013-04-03 19:08:00,46.8,19.9,30.29,ENE,77,0.0,0.0,34,0.00,,CLR,0.00,VWS V14.01,2013-04-04 00:08:00,
2013-04-03 19:09:00,46.6,19.7,30.26,ENE,77,0.0,0.0,34,0.00,,CLR,0.00,VWS V14.01,2013-04-04 00:09:00,
2013-04-03 19:11:00,46.6,19.7,30.26,ENE,74,0.0,4.9,34,0.00,,CLR,0.00,VWS V14.01,2013-04-04 00:11:00,
2013-04-03 19:14:00,46.6,19.7,30.26,ENE,74,2.7,4.0,34,0.00,,CLR,0.00,VWS V14.01,2013-04-04 00:14:00,
2013-04-03 19:16:00,46.8,19.9,30.26,ENE,74,0.0,0.0,34,0.00,,CLR,0.00,VWS V14.01,2013-04-04 00:16:00,
2013-04-03 19:19:00,46.6,19.7,30.26,ENE,74,0.0,0.0,34,0.00,,CLR,0.00,VWS V14.01,2013-04-04 00:19:00,
2013-04-03 19:22:00,46.4,19.6,30.26,ENE,74,0.0,0.0,34,0.00,,CLR,0.00,VWS V14.01,2013-04-04 00:22:00,
2013-04-03 19:24:00,45.9,19.1,30.26,ENE,74,0.0,0.0,34,0.00,,CLR,0.00,VWS V14.01,2013-04-04 00:24:00,
2013-04-03 19:25:00,45.7,18.9,30.26,ENE,74,0.0,0.0,34,0.00,,CLR,0.00,VWS V14.01,2013-04-04 00:25:00,
2013-04-03 19:27:00,45.3,18.6,30.26,ENE,74,0.0,0.0,34,0.00,,CLR,0.00,VWS V14.01,2013-04-04 00:27:00,
2013-04-03 19:30:00,45.0,18.3,30.26,ENE,74,0.0,0.0,34,0.00,,CLR,0.00,VWS V14.01,2013-04-04 00:30:00,
2013-04-03 19:31:00,44.8,18.1,30.26,ENE,74,0.0,0.0,34,0.00,,CLR,0.00,VWS V14.01,2013-04-04 00:31:00,
2013-04-03 19:33:00,44.2,19.0,30.26,ENE,74,0.0,0.0,36,0.00,,CLR,0.00,VWS V14.01,2013-04-04 00:33:00,
2013-04-03 19:35:00,44.1,18.8,30.26,ENE,74,0.0,0.0,36,0.00,,CLR,0.00,VWS V14.01,2013-04-04 00:35:00,
2013-04-03 19:36:00,43.9,18.7,30.26,ENE,74,0.0,0.0,36,0.00,,CLR,0.00,VWS V14.01,2013-04-04 00:36:00,
2013-04-03 19:39:00,43.5,18.4,30.26,ENE,74,0.0,0.0,36,0.00,,CLR,0.00,VWS V14.01,2013-04-04 00:39:00,
2013-04-03 19:40:00,43.5,18.4,30.26,ENE,74,0.0,0.0,36,0.00,,CLR,0.00,VWS V14.01,2013-04-04 00:40:00,
2013-04-03 19:42:00,43.2,18.0,30.26,ENE,74,0.0,0.0,36,0.00,,CLR,0.00,VWS V14.01,2013-04-04 00:42:00,
2013-04-03 19:44:00,43.0,17.9,30.26,ENE,74,0.0,0.0,36,0.00,,CLR,0.00,VWS V14.01,2013-04-04 00:44:00,
2013-04-03 19:45:00,43.0,17.9,30.26,ENE,74,0.0,0.0,36,0.00,,CLR,0.00,VWS V14.01,2013-04-04 00:45:00,
2013-04-03 19:48:00,42.6,17.5,30.26,ENE,74,0.0,0.0,36,0.00,,CLR,0.00,VWS V14.01,2013-04-04 00:48:00,
2013-04-03 19:50:00,42.4,17.4,30.26,ENE,74,0.0,0.0,36,0.00,,CLR,0.00,VWS V14.01,2013-04-04 00:50:00,
2013-04-03 19:52:00,42.3,17.2,30.26,ENE,74,0.0,0.0,36,0.00,,CLR,0.00,VWS V14.01,2013-04-04 00:52:00,
2013-04-03 19:54:00,42.3,17.2,30.26,ENE,74,0.0,0.0,36,0.00,,CLR,0.00,VWS V14.01,2013-04-04 00:54:00,
2013-04-03 19:55:00,42.1,17.1,30.26,ENE,74,0.0,0.0,36,0.00,,CLR,0.00,VWS V14.01,2013-04-04 00:55:00,
2013-04-03 19:57:00,42.1,17.1,30.26,ENE,74,0.0,0.0,36,0.00,,CLR,0.00,VWS V14.01,2013-04-04 00:57:00,
2013-04-03 20:00:00,41.7,16.8,30.26,ENE,74,0.0,0.0,36,0.00,,CLR,0.00,VWS V14.01,2013-04-04 01:00:00,
2013-04-03 20:02:00,41.7,16.8,30.26,ENE,74,0.0,0.0,36,0.00,,CLR,0.00,VWS V14.01,2013-04-04 01:02:00,
2013-04-03 20:03:00,41.7,16.8,30.26,ENE,74,0.0,0.0,36,0.00,,CLR,0.00,VWS V14.01,2013-04-04 01:03:00,
2013-04-03 20:05:00,41.5,16.6,30.26,ENE,74,0.0,0.0,36,0.00,,CLR,0.00,VWS V14.01,2013-04-04 01:05:00,
2013-04-03 20:07:00,41.4,16.4,30.26,ENE,74,0.0,0.0,36,0.00,,CLR,0.00,VWS V14.01,2013-04-04 01:07:00,
2013-04-03 20:08:00,41.4,16.4,30.26,ENE,74,0.0,0.0,36,0.00,,CLR,0.00,VWS V14.01,2013-04-04 01:08:00,
2013-04-03 20:11:00,41.2,16.3,30.26,ENE,74,0.0,0.0,36,0.00,,CLR,0.00,VWS V14.01,2013-04-04 01:11:00,
2013-04-03 20:12:00,41.2,16.3,30.26,ENE,74,0.0,0.0,36,0.00,,CLR,0.00,VWS V14.01,2013-04-04 01:12:00,
2013-04-03 20:13:00,41.0,16.1,30.26,ENE,74,0.0,0.0,36,0.00,,CLR,0.00,VWS V14.01,2013-04-04 01:13:00,
2013-04-03 20:14:00,41.0,16.1,30.26,ENE,74,0.0,0.0,36,0.00,,CLR,0.00,VWS V14.01,2013-04-04 01:14:00,
2013-04-03 20:16:00,41.0,16.1,30.26,ENE,74,0.0,0.0,36,0.00,,CLR,0.00,VWS V14.01,2013-04-04 01:16:00,
2013-04-03 20:17:00,41.0,16.1,30.26,ENE,74,0.0,0.0,36,0.00,,CLR,0.00,VWS V14.01,2013-04-04 01:17:00,
2013-04-03 20:18:00,40.8,15.9,30.26,ENE,74,0.0,0.0,36,0.00,,CLR,0.00,VWS V14.01,2013-04-04 01:18:00,
2013-04-03 20:20:00,40.8,15.9,30.26,ENE,74,0.0,0.0,36,0.00,,CLR,0.00,VWS V14.01,2013-04-04 01:20:00,
2013-04-03 20:21:00,40.6,15.8,30.26,ENE,74,0.0,0.0,36,0.00,,CLR,0.00,VWS V14.01,2013-04-04 01:21:00,
2013-04-03 20:24:00,40.6,15.8,30.26,ENE,74,0.0,0.0,36,0.00,,CLR,0.00,VWS V14.01,2013-04-04 01:24:00,
2013-04-03 20:25:00,40.6,15.8,30.26,ENE,74,0.0,0.0,36,0.00,,CLR,0.00,VWS V14.01,2013-04-04 01:25:00,
2013-04-03 20:27:00,40.6,15.8,30.26,ENE,74,0.0,0.0,36,0.00,,CLR,0.00,VWS V14.01,2013-04-04 01:27:00,
2013-04-03 20:29:00,40.5,15.6,30.26,ENE,74,0.0,0.0,36,0.00,,CLR,0.00,VWS V14.01,2013-04-04 01:29:00,
2013-04-03 20:30:00,40.5,15.6,30.26,ENE,74,0.0,0.0,36,0.00,,CLR,0.00,VWS V14.01,2013-04-04 01:30:00,
2013-04-03 20:32:00,40.5,15.6,30.26,ENE,74,0.0,0.0,36,0.00,,CLR,0.00,VWS V14.01,2013-04-04 01:32:00,
2013-04-03 20:34:00,40.3,15.5,30.26,ENE,74,0.0,0.0,36,0.00,,CLR,0.00,VWS V14.01,2013-04-04 01:34:00,
2013-04-03 20:35:00,40.3,15.5,30.26,ENE,74,0.0,0.0,36,0.00,,CLR,0.00,VWS V14.01,2013-04-04 01:35:00,
2013-04-03 20:38:00,39.9,15.1,30.26,ENE,74,0.0,0.0,36,0.00,,CLR,0.00,VWS V14.01,2013-04-04 01:38:00,
2013-04-03 20:40:00,39.7,15.0,30.26,ENE,74,0.0,0.0,36,0.00,,CLR,0.00,VWS V14.01,2013-04-04 01:40:00,
2013-04-03 20:42:00,39.7,15.0,30.26,ENE,74,0.0,0.0,36,0.00,,CLR,0.00,VWS V14.01,2013-04-04 01:42:00,
2013-04-03 20:43:00,39.7,15.0,30.26,ENE,74,0.0,0.0,36,0.00,,CLR,0.00,VWS V14.01,2013-04-04 01:43:00,
2013-04-03 20:45:00,39.6,14.8,30.26,ENE,74,0.0,0.0,36,0.00,,CLR,0.00,VWS V14.01,2013-04-04 01:45:00,
2013-04-03 20:47:00,39.6,14.8,30.26,ENE,74,0.0,0.0,36,0.00,,CLR,0.00,VWS V14.01,2013-04-04 01:47:00,
2013-04-03 20:49:00,39.4,14.7,30.26,ENE,74,0.0,0.0,36,0.00,,CLR,0.00,VWS V14.01,2013-04-04 01:49:00,
2013-04-03 20:52:00,39.4,14.7,30.26,ENE,74,0.0,0.0,36,0.00,,CLR,0.00,VWS V14.01,2013-04-04 01:52:00,
2013-04-03 20:54:00,39.2,14.5,30.26,ENE,74,0.0,0.0,36,0.00,,CLR,0.00,VWS V14.01,2013-04-04 01:54:00,
2013-04-03 20:55:00,39.2,14.5,30.26,ENE,74,0.0,0.0,36,0.00,,CLR,0.00,VWS V14.01,2013-04-04 01:55:00,
2013-04-03 20:57:00,38.8,15.4,30.26,ENE,74,0.0,0.0,38,0.00,,CLR,0.00,VWS V14.01,2013-04-04 01:57:00,
2013-04-03 20:59:00,38.7,15.3,30.26,ENE,74,0.0,0.0,38,0.00,,CLR,0.00,VWS V14.01,2013-04-04 01:59:00,
2013-04-03 21:00:00,38.7,15.3,30.26,ENE,74,0.0,0.0,38,0.00,,CLR,0.00,VWS V14.01,2013-04-04 02:00:00,
2013-04-03 21:03:00,38.5,15.1,30.26,ENE,74,0.0,0.0,38,0.00,,CLR,0.00,VWS V14.01,2013-04-04 02:03:00,
2013-04-03 21:04:00,38.1,14.8,30.26,ENE,74,0.0,0.0,38,0.00,,CLR,0.00,VWS V14.01,2013-04-04 02:04:00,
2013-04-03 21:05:00,38.1,14.8,30.26,ENE,74,0.0,0.0,38,0.00,,CLR,0.00,VWS V14.01,2013-04-04 02:05:00,
2013-04-03 21:09:00,37.9,14.6,30.29,ENE,74,0.0,0.0,38,0.00,,CLR,0.00,VWS V14.01,2013-04-04 02:09:00,
2013-04-03 21:10:00,38.1,14.8,30.29,ENE,74,0.0,0.0,38,0.00,,CLR,0.00,VWS V14.01,2013-04-04 02:10:00,
2013-04-03 21:11:00,38.1,14.8,30.29,ENE,74,0.0,0.0,38,0.00,,CLR,0.00,VWS V14.01,2013-04-04 02:11:00,
2013-04-03 21:14:00,38.1,14.8,30.29,ENE,74,0.0,0.0,38,0.00,,CLR,0.00,VWS V14.01,2013-04-04 02:14:00,
2013-04-03 21:15:00,38.1,14.8,30.29,ENE,74,0.0,0.0,38,0.00,,CLR,0.00,VWS V14.01,2013-04-04 02:15:00,
2013-04-03 21:16:00,38.1,14.8,30.29,ENE,74,0.0,0.0,38,0.00,,CLR,0.00,VWS V14.01,2013-04-04 02:16:00,
2013-04-03 21:17:00,38.1,14.8,30.29,ENE,74,0.0,0.0,38,0.00,,CLR,0.00,VWS V14.01,2013-04-04 02:17:00,
2013-04-03 21:20:00,38.3,14.9,30.29,ENE,74,0.0,0.0,38,0.00,,CLR,0.00,VWS V14.01,2013-04-04 02:20:00,
2013-04-03 21:21:00,38.3,14.9,30.29,ENE,74,0.0,0.0,38,0.00,,CLR,0.00,VWS V14.01,2013-04-04 02:21:00,
2013-04-03 21:22:00,38.3,14.9,30.29,ENE,74,0.0,0.0,38,0.00,,CLR,0.00,VWS V14.01,2013-04-04 02:22:00,
2013-04-03 21:25:00,38.5,15.1,30.29,ENE,74,0.0,0.0,38,0.00,,CLR,0.00,VWS V14.01,2013-04-04 02:25:00,
2013-04-03 21:26:00,38.5,15.1,30.29,ENE,74,0.0,0.0,38,0.00,,CLR,0.00,VWS V14.01,2013-04-04 02:26:00,
2013-04-03 21:27:00,38.5,15.1,30.29,ENE,74,0.0,0.0,38,0.00,,CLR,0.00,VWS V14.01,2013-04-04 02:27:00,
2013-04-03 21:28:00,38.5,15.1,30.29,ENE,74,0.0,0.0,38,0.00,,CLR,0.00,VWS V14.01,2013-04-04 02:28:00,
2013-04-03 21:30:00,38.5,15.1,30.29,ENE,74,0.0,0.0,38,0.00,,CLR,0.00,VWS V14.01,2013-04-04 02:30:00,
2013-04-03 21:31:00,38.5,15.1,30.29,ENE,74,0.0,0.0,38,0.00,,CLR,0.00,VWS V14.01,2013-04-04 02:31:00,
2013-04-03 21:33:00,38.5,15.1,30.29,ENE,74,0.0,0.0,38,0.00,,CLR,0.00,VWS V14.01,2013-04-04 02:33:00,
2013-04-03 21:34:00,38.3,14.9,30.29,ENE,74,0.0,0.0,38,0.00,,CLR,0.00,VWS V14.01,2013-04-04 02:34:00,
2013-04-03 21:36:00,38.3,14.9,30.29,ENE,74,0.0,0.0,38,0.00,,CLR,0.00,VWS V14.01,2013-04-04 02:36:00,
2013-04-03 21:39:00,38.1,14.8,30.29,ENE,74,0.0,0.0,38,0.00,,CLR,0.00,VWS V14.01,2013-04-04 02:39:00,
2013-04-03 21:42:00,38.1,14.8,30.29,ENE,74,0.0,0.0,38,0.00,,CLR,0.00,VWS V14.01,2013-04-04 02:42:00,
2013-04-03 21:43:00,38.1,14.8,30.29,ENE,74,0.0,0.0,38,0.00,,CLR,0.00,VWS V14.01,2013-04-04 02:43:00,
2013-04-03 21:44:00,37.9,14.6,30.29,ENE,74,0.0,0.0,38,0.00,,CLR,0.00,VWS V14.01,2013-04-04 02:44:00,
2013-04-03 21:47:00,37.9,14.6,30.29,ENE,74,0.0,0.0,38,0.00,,CLR,0.00,VWS V14.01,2013-04-04 02:47:00,
2013-04-03 21:48:00,37.9,14.6,30.29,ENE,74,0.0,0.0,38,0.00,,CLR,0.00,VWS V14.01,2013-04-04 02:48:00,
2013-04-03 21:49:00,38.1,14.8,30.29,ENE,74,0.0,0.0,38,0.00,,CLR,0.00,VWS V14.01,2013-04-04 02:49:00,
2013-04-03 21:50:00,37.9,14.6,30.29,ENE,74,0.0,0.0,38,0.00,,CLR,0.00,VWS V14.01,2013-04-04 02:50:00,
2013-04-03 21:53:00,37.9,14.6,30.29,ENE,74,0.0,0.0,38,0.00,,CLR,0.00,VWS V14.01,2013-04-04 02:53:00,
2013-04-03 21:54:00,38.1,14.8,30.29,ENE,74,0.0,0.0,38,0.00,,CLR,0.00,VWS V14.01,2013-04-04 02:54:00,
2013-04-03 21:56:00,38.1,14.8,30.29,ENE,74,0.0,0.0,38,0.00,,CLR,0.00,VWS V14.01,2013-04-04 02:56:00,
2013-04-03 21:58:00,38.1,14.8,30.29,ENE,74,0.0,0.0,38,0.00,,CLR,0.00,VWS V14.01,2013-04-04 02:58:00,
2013-04-03 21:59:00,37.9,14.6,30.29,ENE,74,0.0,0.0,38,0.00,,CLR,0.00,VWS V14.01,2013-04-04 02:59:00,
2013-04-03 22:00:00,37.9,14.6,30.29,ENE,74,0.0,0.0,38,0.00,,CLR,0.00,VWS V14.01,2013-04-04 03:00:00,
2013-04-03 22:01:00,37.9,14.6,30.29,ENE,74,0.0,0.0,38,0.00,,CLR,0.00,VWS V14.01,2013-04-04 03:01:00,
2013-04-03 22:03:00,37.8,14.4,30.29,ENE,74,0.0,0.0,38,0.00,,CLR,0.00,VWS V14.01,2013-04-04 03:03:00,
2013-04-03 22:05:00,37.6,14.3,30.29,ENE,74,0.0,0.0,38,0.00,,CLR,0.00,VWS V14.01,2013-04-04 03:05:00,
2013-04-03 22:07:00,37.2,14.0,30.29,ENE,74,0.0,0.0,38,0.00,,CLR,0.00,VWS V14.01,2013-04-04 03:07:00,
2013-04-03 22:08:00,37.2,14.0,30.29,ENE,74,0.0,0.0,38,0.00,,CLR,0.00,VWS V14.01,2013-04-04 03:08:00,
2013-04-03 22:09:00,37.2,14.0,30.29,ENE,74,0.0,0.0,38,0.00,,CLR,0.00,VWS V14.01,2013-04-04 03:09:00,
2013-04-03 22:10:00,37.0,13.8,30.29,ENE,74,0.0,0.0,38,0.00,,CLR,0.00,VWS V14.01,2013-04-04 03:10:00,
2013-04-03 22:13:00,36.9,13.6,30.29,ENE,74,0.0,0.0,38,0.00,,CLR,0.00,VWS V14.01,2013-04-04 03:13:00,
2013-04-03 22:14:00,36.7,13.5,30.29,ENE,74,0.0,0.0,38,0.00,,CLR,0.00,VWS V14.01,2013-04-04 03:14:00,
2013-04-03 22:15:00,36.7,13.5,30.29,ENE,74,0.0,0.0,38,0.00,,CLR,0.00,VWS V14.01,2013-04-04 03:15:00,
2013-04-03 22:18:00,36.7,13.5,30.29,ENE,74,0.0,0.0,38,0.00,,CLR,0.00,VWS V14.01,2013-04-04 03:18:00,
2013-04-03 22:19:00,36.5,13.3,30.29,ENE,74,0.0,0.0,38,0.00,,CLR,0.00,VWS V14.01,2013-04-04 03:19:00,
2013-04-03 22:20:00,36.5,13.3,30.29,ENE,74,0.0,0.0,38,0.00,,CLR,0.00,VWS V14.01,2013-04-04 03:20:00,
2013-04-03 22:24:00,36.3,13.2,30.29,ENE,74,0.0,0.0,38,0.00,,CLR,0.00,VWS V14.01,2013-04-04 03:24:00,
2013-04-03 22:25:00,36.1,13.0,30.29,ENE,74,0.0,0.0,38,0.00,,CLR,0.00,VWS V14.01,2013-04-04 03:25:00,
2013-04-03 22:26:00,36.0,12.8,30.29,ENE,74,0.0,0.0,38,0.00,,CLR,0.00,VWS V14.01,2013-04-04 03:26:00,
2013-04-03 22:27:00,36.0,12.8,30.29,ENE,74,0.0,0.0,38,0.00,,CLR,0.00,VWS V14.01,2013-04-04 03:27:00,
2013-04-03 22:29:00,35.8,12.7,30.29,ENE,74,0.0,0.0,38,0.00,,CLR,0.00,VWS V14.01,2013-04-04 03:29:00,
2013-04-03 22:30:00,35.8,12.7,30.29,ENE,74,0.0,0.0,38,0.00,,CLR,0.00,VWS V14.01,2013-04-04 03:30:00,
2013-04-03 22:32:00,35.6,12.5,30.29,ENE,74,0.0,0.0,38,0.00,,CLR,0.00,VWS V14.01,2013-04-04 03:32:00,
2013-04-03 22:35:00,35.6,12.5,30.29,ENE,74,0.0,0.0,38,0.00,,CLR,0.00,VWS V14.01,2013-04-04 03:35:00,
2013-04-03 22:36:00,35.8,12.7,30.29,ENE,74,0.0,0.0,38,0.00,,CLR,0.00,VWS V14.01,2013-04-04 03:36:00,
2013-04-03 22:37:00,35.8,12.7,30.29,ENE,74,0.0,0.0,38,0.00,,CLR,0.00,VWS V14.01,2013-04-04 03:37:00,
2013-04-03 22:40:00,35.8,12.7,30.29,ENE,74,0.0,0.0,38,0.00,,CLR,0.00,VWS V14.01,2013-04-04 03:40:00,
2013-04-03 22:41:00,35.8,12.7,30.29,ENE,74,0.0,0.0,38,0.00,,CLR,0.00,VWS V14.01,2013-04-04 03:41:00,
2013-04-03 22:42:00,35.8,12.7,30.29,ENE,74,0.0,0.0,38,0.00,,CLR,0.00,VWS V14.01,2013-04-04 03:42:00,
2013-04-03 22:43:00,35.8,12.7,30.29,ENE,74,0.0,0.0,38,0.00,,CLR,0.00,VWS V14.01,2013-04-04 03:43:00,
2013-04-03 22:47:00,35.8,12.7,30.29,ENE,74,0.0,0.0,38,0.00,,CLR,0.00,VWS V14.01,2013-04-04 03:47:00,
2013-04-03 22:48:00,35.8,12.7,30.29,ENE,74,0.0,0.0,38,0.00,,CLR,0.00,VWS V14.01,2013-04-04 03:48:00,
2013-04-03 22:50:00,35.8,12.7,30.29,ENE,74,0.0,0.0,38,0.00,,CLR,0.00,VWS V14.01,2013-04-04 03:50:00,
2013-04-03 22:52:00,36.0,12.8,30.29,ENE,74,0.0,0.0,38,0.00,,CLR,0.00,VWS V14.01,2013-04-04 03:52:00,
2013-04-03 22:53:00,36.1,13.0,30.29,ENE,74,0.0,0.0,38,0.00,,CLR,0.00,VWS V14.01,2013-04-04 03:53:00,
2013-04-03 22:54:00,36.1,13.0,30.29,ENE,74,0.0,0.0,38,0.00,,CLR,0.00,VWS V14.01,2013-04-04 03:54:00,
2013-04-03 22:56:00,36.3,13.2,30.29,ENE,74,0.0,0.0,38,0.00,,CLR,0.00,VWS V14.01,2013-04-04 03:56:00,
2013-04-03 22:58:00,36.3,13.2,30.29,ENE,74,0.0,0.0,38,0.00,,CLR,0.00,VWS V14.01,2013-04-04 03:58:00,
2013-04-03 22:59:00,36.5,13.3,30.29,ENE,74,0.0,0.0,38,0.00,,CLR,0.00,VWS V14.01,2013-04-04 03:59:00,
2013-04-03 23:00:00,36.5,13.3,30.29,ENE,74,0.0,0.0,38,0.00,,CLR,0.00,VWS V14.01,2013-04-04 04:00:00,
2013-04-03 23:05:00,36.0,12.8,30.29,ENE,74,0.0,0.0,38,0.00,,CLR,0.00,VWS V14.01,2013-04-04 04:05:00,
2013-04-03 23:06:00,36.0,12.8,30.29,ENE,74,0.0,0.0,38,0.00,,CLR,0.00,VWS V14.01,2013-04-04 04:06:00,
2013-04-03 23:10:00,35.8,12.7,30.26,ENE,74,0.0,0.0,38,0.00,,CLR,0.00,VWS V14.01,2013-04-04 04:10:00,
2013-04-03 23:11:00,35.8,12.7,30.26,ENE,74,0.0,0.0,38,0.00,,CLR,0.00,VWS V14.01,2013-04-04 04:11:00,
2013-04-03 23:15:00,36.1,13.0,30.26,ENE,74,0.0,0.0,38,0.00,,CLR,0.00,VWS V14.01,2013-04-04 04:15:00,
2013-04-03 23:16:00,36.1,13.0,30.26,ENE,74,0.0,0.0,38,0.00,,CLR,0.00,VWS V14.01,2013-04-04 04:16:00,
2013-04-03 23:18:00,36.3,13.2,30.26,ENE,74,0.0,0.0,38,0.00,,CLR,0.00,VWS V14.01,2013-04-04 04:18:00,
2013-04-03 23:20:00,36.3,13.2,30.26,ENE,74,0.0,0.0,38,0.00,,CLR,0.00,VWS V14.01,2013-04-04 04:20:00,
2013-04-03 23:21:00,36.3,13.2,30.26,ENE,74,0.0,0.0,38,0.00,,CLR,0.00,VWS V14.01,2013-04-04 04:21:00,
2013-04-03 23:23:00,36.3,13.2,30.26,ENE,74,0.0,0.0,38,0.00,,CLR,0.00,VWS V14.01,2013-04-04 04:23:00,
2013-04-03 23:26:00,36.3,13.2,30.26,ENE,74,2.7,3.1,38,0.00,,CLR,0.00,VWS V14.01,2013-04-04 04:26:00,
2013-04-03 23:27:00,36.3,13.2,30.26,ENE,74,2.7,2.7,38,0.00,,CLR,0.00,VWS V14.01,2013-04-04 04:27:00,
2013-04-03 23:28:00,36.3,13.2,30.26,ENE,75,3.1,3.1,38,0.00,,CLR,0.00,VWS V14.01,2013-04-04 04:28:00,
2013-04-03 23:29:00,36.1,13.0,30.26,ENE,74,2.7,3.1,38,0.00,,CLR,0.00,VWS V14.01,2013-04-04 04:29:00,
2013-04-03 23:32:00,36.1,13.0,30.26,ENE,75,2.7,3.1,38,0.00,,CLR,0.00,VWS V14.01,2013-04-04 04:32:00,
2013-04-03 23:33:00,36.0,12.8,30.26,ENE,75,0.0,3.1,38,0.00,,CLR,0.00,VWS V14.01,2013-04-04 04:33:00,
2013-04-03 23:34:00,36.0,12.8,30.26,ENE,74,0.0,0.0,38,0.00,,CLR,0.00,VWS V14.01,2013-04-04 04:34:00,
2013-04-03 23:37:00,35.6,12.5,30.26,ENE,74,0.0,0.0,38,0.00,,CLR,0.00,VWS V14.01,2013-04-04 04:37:00,
2013-04-03 23:38:00,35.6,12.5,30.26,ENE,74,0.0,0.0,38,0.00,,CLR,0.00,VWS V14.01,2013-04-04 04:38:00,
2013-04-03 23:39:00,35.4,13.5,30.26,ENE,74,0.0,0.0,40,0.00,,CLR,0.00,VWS V14.01,2013-04-04 04:39:00,
2013-04-03 23:42:00,35.1,13.2,30.26,ENE,74,0.0,0.0,40,0.00,,CLR,0.00,VWS V14.01,2013-04-04 04:42:00,
2013-04-03 23:43:00,35.1,13.2,30.26,ENE,74,0.0,0.0,40,0.00,,CLR,0.00,VWS V14.01,2013-04-04 04:43:00,
2013-04-03 23:44:00,35.1,13.2,30.26,ENE,75,0.0,0.0,40,0.00,,CLR,0.00,VWS V14.01,2013-04-04 04:44:00,
2013-04-03 23:45:00,34.9,13.0,30.26,ENE,75,0.0,0.0,40,0.00,,CLR,0.00,VWS V14.01,2013-04-04 04:45:00,
2013-04-03 23:47:00,34.9,13.0,30.26,ENE,74,0.0,0.0,40,0.00,,CLR,0.00,VWS V14.01,2013-04-04 04:47:00,
2013-04-03 23:48:00,34.9,13.0,30.26,ENE,74,0.0,0.0,40,0.00,,CLR,0.00,VWS V14.01,2013-04-04 04:48:00,
2013-04-03 23:50:00,34.9,13.0,30.26,ENE,75,0.0,0.0,40,0.00,,CLR,0.00,VWS V14.01,2013-04-04 04:50:00,
2013-04-03 23:52:00,34.9,13.0,30.26,ENE,74,0.0,0.0,40,0.00,,CLR,0.00,VWS V14.01,2013-04-04 04:52:00,
2013-04-03 23:53:00,34.9,13.0,30.26,ENE,74,0.0,0.0,40,0.00,,CLR,0.00,VWS V14.01,2013-04-04 04:53:00,
2013-04-03 23:55:00,34.9,13.0,30.26,ENE,75,0.0,0.0,40,0.00,,CLR,0.00,VWS V14.01,2013-04-04 04:55:00,
2013-04-03 23:58:00,35.1,13.2,30.26,ENE,75,0.0,0.0,40,0.00,,CLR,0.00,VWS V14.01,2013-04-04 04:58:00,
2013-04-03 23:59:00,35.1,13.2,30.26,ENE,75,0.0,0.0,40,0.00,,CLR,0.00,VWS V14.01,2013-04-04 04:59:00,